| time (UTC) | temp C | wind direction | speed KPH | gust KPH | rain 1hr cm | rain 24hr cm | rain mn cm | humidity % | barometer mb |
| 20260505164434 | 14 | 128 | 1.6 | 3.2 | 0.00 | 0.18 | 0.00 | 80 | 1015.8 |
| 20260505164332 | 14 | 285 | 1.6 | 3.2 | 0.00 | 0.18 | 0.00 | 80 | 1015.9 |
| 20260505164232 | 14 | 103 | 1.6 | 3.2 | 0.00 | 0.18 | 0.00 | 81 | 1015.9 |
| 20260505164029 | 14 | 99 | 1.6 | 3.2 | 0.00 | 0.18 | 0.00 | 81 | 1015.8 |
| 20260505163927 | 14 | 330 | 1.6 | 3.2 | 0.00 | 0.18 | 0.00 | 81 | 1015.8 |
| 20260505163827 | 14 | 115 | 1.6 | 3.2 | 0.00 | 0.18 | 0.00 | 81 | 1015.8 |
| 20260505163723 | 14 | 75 | 1.6 | 3.2 | 0.00 | 0.18 | 0.00 | 82 | 1015.8 |
| 20260505163522 | 14 | 14 | 1.6 | 3.2 | 0.00 | 0.18 | 0.00 | 82 | 1015.8 |
| 20260505163423 | 14 | 0 | 1.6 | 3.2 | 0.00 | 0.18 | 0.00 | 82 | 1015.8 |
| 20260505163322 | 14 | 52 | 1.6 | 3.2 | 0.00 | 0.18 | 0.00 | 82 | 1015.8 |
| 20260505163220 | 14 | 85 | 1.6 | 3.2 | 0.00 | 0.18 | 0.00 | 82 | 1015.8 |
| 20260505163021 | 14 | 89 | 1.6 | 3.2 | 0.00 | 0.18 | 0.00 | 82 | 1015.8 |
| 20260505162920 | 14 | 169 | 1.6 | 3.2 | 0.00 | 0.18 | 0.00 | 82 | 1015.7 |
| 20260505162820 | 14 | 312 | 1.6 | 3.2 | 0.00 | 0.18 | 0.00 | 81 | 1015.7 |
| 20260505162720 | 14 | 82 | 1.6 | 4.8 | 0.00 | 0.18 | 0.00 | 81 | 1015.7 |
| 20260505162520 | 14 | 120 | 1.6 | 4.8 | 0.00 | 0.18 | 0.00 | 81 | 1015.7 |
| 20260505162419 | 14 | 164 | 1.6 | 4.8 | 0.00 | 0.18 | 0.00 | 82 | 1015.7 |
| 20260505162320 | 14 | 136 | 1.6 | 4.8 | 0.00 | 0.18 | 0.00 | 82 | 1015.8 |
| 20260505162220 | 14 | 81 | 1.6 | 4.8 | 0.00 | 0.18 | 0.00 | 82 | 1015.8 |
| 20260505162020 | 13 | 86 | 1.6 | 4.8 | 0.00 | 0.18 | 0.00 | 82 | 1015.8 |
| 20260505161920 | 13 | 80 | 1.6 | 4.8 | 0.00 | 0.18 | 0.00 | 82 | 1015.7 |
| 20260505161820 | 13 | 118 | 1.6 | 4.8 | 0.00 | 0.18 | 0.00 | 83 | 1015.7 |
| 20260505161742 | 13 | 131 | 1.6 | 3.2 | 0.00 | 0.18 | 0.00 | 83 | 1015.7 |
| 20260505161726 | 13 | 82 | 1.6 | 3.2 | 0.00 | 0.18 | 0.00 | 83 | 1015.7 |
| 20260505161520 | 13 | 28 | 1.6 | 4.8 | 0.00 | 0.18 | 0.00 | 83 | 1015.7 |
| 20260505161420 | 13 | 98 | 1.6 | 4.8 | 0.00 | 0.18 | 0.00 | 83 | 1015.7 |
| 20260505161320 | 13 | 76 | 1.6 | 4.8 | 0.00 | 0.18 | 0.00 | 83 | 1015.7 |
| 20260505161242 | 13 | 131 | 1.6 | 4.8 | 0.00 | 0.18 | 0.00 | 83 | 1015.7 |
| 20260505161227 | 13 | 167 | 1.6 | 4.8 | 0.00 | 0.18 | 0.00 | 84 | 1015.7 |
| 20260505161021 | 13 | 83 | 1.6 | 4.8 | 0.00 | 0.18 | 0.00 | 84 | 1015.7 |
| 20260505160920 | 13 | 107 | 1.6 | 4.8 | 0.00 | 0.18 | 0.00 | 84 | 1015.7 |
| 20260505160820 | 13 | 103 | 1.6 | 4.8 | 0.00 | 0.18 | 0.00 | 84 | 1015.7 |
| 20260505160742 | 13 | 80 | 1.6 | 4.8 | 0.00 | 0.18 | 0.00 | 84 | 1015.7 |
| 20260505160726 | 13 | 191 | 1.6 | 4.8 | 0.00 | 0.18 | 0.00 | 84 | 1015.7 |
| 20260505160520 | 13 | 166 | 1.6 | 3.2 | 0.00 | 0.18 | 0.00 | 84 | 1015.7 |
| 20260505160421 | 13 | 169 | 1.6 | 3.2 | 0.00 | 0.18 | 0.00 | 85 | 1015.7 |
| 20260505160320 | 13 | 79 | 1.6 | 3.2 | 0.00 | 0.18 | 0.00 | 85 | 1015.7 |
| 20260505160221 | 13 | 189 | 1.6 | 3.2 | 0.00 | 0.18 | 0.00 | 86 | 1015.7 |
| 20260505153304 | 13 | 58 | 1.6 | 4.8 | 0.00 | 0.18 | 0.00 | 88 | 1015.6 |
| 20260505153203 | 13 | 182 | 1.6 | 4.8 | 0.00 | 0.18 | 0.00 | 88 | 1015.7 |
| 20260505153102 | 13 | 182 | 1.6 | 4.8 | 0.00 | 0.18 | 0.00 | 87 | 1015.7 |
| 20260505153003 | 13 | 68 | 1.6 | 4.8 | 0.00 | 0.18 | 0.00 | 87 | 1015.6 |
| 20260505152903 | 13 | 21 | 1.6 | 4.8 | 0.00 | 0.18 | 0.00 | 87 | 1015.6 |
| 20260505152803 | 13 | 125 | 1.6 | 4.8 | 0.00 | 0.18 | 0.00 | 87 | 1015.6 |
| 20260505152703 | 13 | 233 | 1.6 | 4.8 | 0.00 | 0.18 | 0.00 | 87 | 1015.6 |
| 20260505152603 | 13 | 94 | 1.6 | 4.8 | 0.00 | 0.18 | 0.00 | 87 | 1015.6 |
| 20260505152502 | 13 | 179 | 1.6 | 3.2 | 0.00 | 0.18 | 0.00 | 87 | 1015.6 |
| 20260505152404 | 13 | 228 | 1.6 | 3.2 | 0.00 | 0.18 | 0.00 | 86 | 1015.6 |
| 20260505152305 | 13 | 244 | 1.6 | 3.2 | 0.00 | 0.18 | 0.00 | 86 | 1015.6 |
| 20260505152203 | 13 | 9 | 1.6 | 3.2 | 0.00 | 0.18 | 0.00 | 87 | 1015.6 |
| 20260505152104 | 13 | 225 | 1.6 | 3.2 | 0.00 | 0.18 | 0.00 | 87 | 1015.6 |
| 20260505152004 | 13 | 179 | 1.6 | 3.2 | 0.00 | 0.18 | 0.00 | 87 | 1015.6 |
| 20260505151903 | 13 | 89 | 1.6 | 3.2 | 0.00 | 0.18 | 0.00 | 87 | 1015.6 |
| 20260505151804 | 13 | 0 | 1.6 | 3.2 | 0.00 | 0.18 | 0.00 | 87 | 1015.6 |
| 20260505151702 | 13 | 130 | 1.6 | 3.2 | 0.00 | 0.18 | 0.00 | 87 | 1015.6 |
| 20260505151602 | 13 | 113 | 1.6 | 3.2 | 0.00 | 0.18 | 0.00 | 87 | 1015.6 |
| 20260505151502 | 13 | 154 | 1.6 | 3.2 | 0.00 | 0.18 | 0.00 | 87 | 1015.6 |
| 20260505151402 | 13 | 151 | 1.6 | 3.2 | 0.00 | 0.18 | 0.00 | 87 | 1015.6 |
| 20260505151302 | 13 | 165 | 1.6 | 3.2 | 0.00 | 0.18 | 0.00 | 87 | 1015.6 |
| 20260505151202 | 13 | 130 | 1.6 | 3.2 | 0.00 | 0.18 | 0.00 | 87 | 1015.6 |
| 20260505151102 | 13 | 136 | 1.6 | 3.2 | 0.00 | 0.18 | 0.00 | 87 | 1015.6 |
| 20260505151002 | 13 | 99 | 1.6 | 3.2 | 0.00 | 0.18 | 0.00 | 86 | 1015.6 |
| 20260505150802 | 12 | 164 | 1.6 | 3.2 | 0.00 | 0.18 | 0.00 | 87 | 1015.6 |
| 20260505150702 | 12 | 0 | 1.6 | 3.2 | 0.00 | 0.18 | 0.00 | 87 | 1015.6 |
| 20260505150602 | 12 | 94 | 1.6 | 3.2 | 0.00 | 0.18 | 0.00 | 87 | 1015.5 |
| 20260505150502 | 12 | 92 | 1.6 | 3.2 | 0.00 | 0.18 | 0.00 | 87 | 1015.5 |
| 20260505150402 | 12 | 123 | 1.6 | 3.2 | 0.00 | 0.18 | 0.00 | 87 | 1015.5 |
| 20260505150302 | 12 | 139 | 1.6 | 3.2 | 0.00 | 0.18 | 0.00 | 87 | 1015.5 |
| 20260505150202 | 12 | 104 | 1.6 | 3.2 | 0.00 | 0.18 | 0.00 | 87 | 1015.5 |
| 20260505140556 | 12 | 72 | 1.6 | 3.2 | 0.00 | 0.18 | 0.00 | 88 | 1015.0 |
| 20260505140457 | 12 | 75 | 1.6 | 3.2 | 0.00 | 0.18 | 0.00 | 89 | 1015.0 |
| 20260505140357 | 12 | 92 | 1.6 | 3.2 | 0.00 | 0.18 | 0.00 | 88 | 1015.0 |
| 20260505140257 | 12 | 179 | 1.6 | 3.2 | 0.00 | 0.18 | 0.00 | 88 | 1015.0 |
| 20260505140156 | 12 | 5 | 1.6 | 3.2 | 0.00 | 0.18 | 0.00 | 88 | 1015.0 |
| 20260505130241 | 12 | 121 | 1.6 | 3.2 | 0.00 | 0.18 | 0.00 | 87 | 1014.7 |
| 20260505130141 | 12 | 187 | 1.6 | 3.2 | 0.00 | 0.18 | 0.00 | 87 | 1014.7 |
| 20260505125032 | 12 | 139 | 1.6 | 3.2 | 0.00 | 0.18 | 0.00 | 87 | 1014.6 |
| 20260505124932 | 12 | 117 | 1.6 | 3.2 | 0.00 | 0.18 | 0.00 | 87 | 1014.6 |
| 20260505124833 | 12 | 103 | 1.6 | 3.2 | 0.00 | 0.18 | 0.00 | 87 | 1014.6 |
| 20260505124733 | 12 | 78 | 1.6 | 3.2 | 0.00 | 0.18 | 0.00 | 87 | 1014.6 |
| 20260505124630 | 12 | 3 | 1.6 | 3.2 | 0.00 | 0.18 | 0.00 | 87 | 1014.6 |
| 20260505124530 | 12 | 103 | 1.6 | 3.2 | 0.00 | 0.18 | 0.00 | 87 | 1014.6 |
| 20260505124429 | 12 | 171 | 0.0 | 3.2 | 0.00 | 0.18 | 0.00 | 87 | 1014.6 |
| 20260505124330 | 12 | 140 | 1.6 | 3.2 | 0.00 | 0.18 | 0.00 | 87 | 1014.6 |
| 20260505124230 | 12 | 134 | 0.0 | 3.2 | 0.00 | 0.18 | 0.00 | 87 | 1014.6 |
| 20260505124212 | 12 | 183 | 0.0 | 3.2 | 0.00 | 0.18 | 0.00 | 87 | 1014.6 |
| 20260505124029 | 12 | 0 | 1.6 | 3.2 | 0.00 | 0.18 | 0.00 | 87 | 1014.6 |
| 20260505123927 | 12 | 210 | 1.6 | 3.2 | 0.00 | 0.18 | 0.00 | 87 | 1014.6 |
| 20260505123827 | 12 | 84 | 1.6 | 3.2 | 0.00 | 0.18 | 0.00 | 87 | 1014.6 |
| 20260505123728 | 12 | 126 | 1.6 | 3.2 | 0.00 | 0.18 | 0.00 | 87 | 1014.6 |
| 20260505123627 | 12 | 108 | 1.6 | 3.2 | 0.00 | 0.18 | 0.00 | 87 | 1014.6 |
| 20260505123527 | 12 | 100 | 1.6 | 3.2 | 0.00 | 0.18 | 0.00 | 87 | 1014.5 |
| 20260505123428 | 12 | 76 | 1.6 | 3.2 | 0.00 | 0.18 | 0.00 | 87 | 1014.5 |
| 20260505123327 | 12 | 168 | 1.6 | 3.2 | 0.00 | 0.18 | 0.00 | 87 | 1014.5 |
| 20260505123228 | 12 | 174 | 1.6 | 3.2 | 0.00 | 0.18 | 0.00 | 87 | 1014.5 |
| 20260505123208 | 12 | 162 | 1.6 | 3.2 | 0.00 | 0.18 | 0.00 | 87 | 1014.5 |
| 20260505123028 | 12 | 167 | 1.6 | 3.2 | 0.00 | 0.18 | 0.00 | 87 | 1014.5 |
| 20260505122927 | 12 | 184 | 1.6 | 3.2 | 0.00 | 0.18 | 0.00 | 87 | 1014.5 |
| 20260505122827 | 12 | 155 | 1.6 | 3.2 | 0.00 | 0.18 | 0.00 | 87 | 1014.5 |
| 20260505122728 | 12 | 129 | 1.6 | 1.6 | 0.00 | 0.18 | 0.00 | 87 | 1014.5 |
| 20260505122626 | 12 | 175 | 1.6 | 1.6 | 0.00 | 0.18 | 0.00 | 87 | 1014.6 |
| 20260505122527 | 12 | 170 | 1.6 | 1.6 | 0.00 | 0.18 | 0.00 | 87 | 1014.6 |
| 20260505122438 | 12 | 160 | 1.6 | 1.6 | 0.00 | 0.18 | 0.00 | 87 | 1014.6 |
| 20260505122430 | 12 | 86 | 1.6 | 1.6 | 0.00 | 0.18 | 0.00 | 87 | 1014.6 |
| 20260505122228 | 12 | 148 | 1.6 | 3.2 | 0.00 | 0.18 | 0.00 | 87 | 1014.6 |
| 20260505122209 | 12 | 129 | 1.6 | 3.2 | 0.00 | 0.18 | 0.00 | 87 | 1014.6 |
| 20260505122028 | 12 | 169 | 1.6 | 3.2 | 0.00 | 0.18 | 0.00 | 87 | 1014.6 |
| 20260505121927 | 12 | 172 | 1.6 | 3.2 | 0.00 | 0.18 | 0.00 | 87 | 1014.6 |
| 20260505121828 | 12 | 165 | 1.6 | 3.2 | 0.00 | 0.18 | 0.00 | 87 | 1014.5 |
| 20260505121727 | 12 | 0 | 1.6 | 3.2 | 0.00 | 0.18 | 0.00 | 87 | 1014.5 |
| 20260505121710 | 12 | 83 | 1.6 | 3.2 | 0.00 | 0.18 | 0.00 | 87 | 1014.5 |
| 20260505121528 | 12 | 95 | 1.6 | 3.2 | 0.00 | 0.18 | 0.00 | 87 | 1014.5 |
| 20260505121427 | 12 | 76 | 1.6 | 3.2 | 0.00 | 0.18 | 0.00 | 87 | 1014.5 |
| 20260505121327 | 12 | 0 | 1.6 | 3.2 | 0.00 | 0.18 | 0.00 | 87 | 1014.5 |
| 20260505121228 | 12 | 155 | 1.6 | 3.2 | 0.00 | 0.18 | 0.00 | 87 | 1014.5 |
| 20260505121127 | 12 | 140 | 1.6 | 4.8 | 0.00 | 0.18 | 0.00 | 87 | 1014.5 |
| 20260505121027 | 12 | 157 | 1.6 | 4.8 | 0.00 | 0.18 | 0.00 | 87 | 1014.5 |
| 20260505120926 | 12 | 183 | 1.6 | 4.8 | 0.00 | 0.18 | 0.00 | 87 | 1014.5 |
| 20260505120828 | 12 | 24 | 1.6 | 4.8 | 0.00 | 0.18 | 0.00 | 88 | 1014.5 |
| 20260505120729 | 12 | 96 | 1.6 | 4.8 | 0.00 | 0.18 | 0.00 | 87 | 1014.5 |
| 20260505120709 | 12 | 86 | 0.0 | 4.8 | 0.00 | 0.18 | 0.00 | 87 | 1014.5 |
| 20260505120526 | 12 | 101 | 1.6 | 4.8 | 0.00 | 0.18 | 0.00 | 87 | 1014.5 |
| 20260505120426 | 12 | 2 | 0.0 | 4.8 | 0.00 | 0.18 | 0.00 | 87 | 1014.5 |
| 20260505120329 | 12 | 86 | 0.0 | 4.8 | 0.00 | 0.18 | 0.00 | 87 | 1014.5 |
| 20260505120224 | 12 | 0 | 1.6 | 4.8 | 0.00 | 0.18 | 0.00 | 87 | 1014.5 |
| 20260505120209 | 12 | 233 | 0.0 | 3.2 | 0.00 | 0.18 | 0.00 | 87 | 1014.5 |
| 20260505120025 | 12 | 111 | 0.0 | 3.2 | 0.00 | 0.18 | 0.00 | 87 | 1014.5 |
| 20260505115924 | 12 | 281 | 0.0 | 1.6 | 0.00 | 0.18 | 0.00 | 87 | 1014.5 |
| 20260505115825 | 12 | 167 | 0.0 | 1.6 | 0.00 | 0.18 | 0.00 | 87 | 1014.5 |
| 20260505115723 | 12 | 166 | 0.0 | 1.6 | 0.00 | 0.18 | 0.00 | 87 | 1014.5 |
| 20260505115618 | 12 | 104 | 0.0 | 1.6 | 0.00 | 0.18 | 0.00 | 87 | 1014.5 |
| 20260505115518 | 12 | 179 | 0.0 | 1.6 | 0.00 | 0.18 | 0.00 | 87 | 1014.5 |
| 20260505115418 | 12 | 88 | 1.6 | 1.6 | 0.00 | 0.18 | 0.00 | 87 | 1014.5 |
| 20260505115318 | 12 | 122 | 1.6 | 1.6 | 0.00 | 0.18 | 0.00 | 87 | 1014.5 |
| 20260505115221 | 12 | 124 | 1.6 | 3.2 | 0.00 | 0.18 | 0.00 | 87 | 1014.5 |
| 20260505115116 | 12 | 122 | 1.6 | 3.2 | 0.00 | 0.18 | 0.00 | 87 | 1014.5 |
| 20260505115017 | 12 | 69 | 1.6 | 3.2 | 0.00 | 0.18 | 0.00 | 87 | 1014.5 |
| 20260505114912 | 12 | 138 | 1.6 | 3.2 | 0.00 | 0.18 | 0.00 | 87 | 1014.5 |
| 20260505114813 | 12 | 185 | 1.6 | 3.2 | 0.00 | 0.18 | 0.00 | 87 | 1014.5 |
| 20260505114713 | 12 | 171 | 1.6 | 3.2 | 0.00 | 0.18 | 0.00 | 87 | 1014.5 |
| 20260505114613 | 12 | 178 | 1.6 | 3.2 | 0.00 | 0.18 | 0.00 | 87 | 1014.5 |
| 20260505114513 | 12 | 84 | 1.6 | 3.2 | 0.00 | 0.18 | 0.00 | 87 | 1014.5 |
| 20260505114413 | 12 | 120 | 1.6 | 3.2 | 0.00 | 0.18 | 0.00 | 87 | 1014.5 |
| 20260505114311 | 12 | 107 | 1.6 | 3.2 | 0.00 | 0.18 | 0.00 | 87 | 1014.5 |
| 20260505114210 | 12 | 131 | 1.6 | 3.2 | 0.00 | 0.18 | 0.00 | 87 | 1014.5 |
| 20260505114109 | 12 | 86 | 0.0 | 3.2 | 0.00 | 0.18 | 0.00 | 86 | 1014.5 |
| 20260505114010 | 12 | 121 | 0.0 | 3.2 | 0.00 | 0.18 | 0.00 | 87 | 1014.5 |
| 20260505113910 | 12 | 143 | 0.0 | 3.2 | 0.00 | 0.18 | 0.00 | 87 | 1014.4 |
| 20260505113811 | 12 | 173 | 0.0 | 1.6 | 0.00 | 0.18 | 0.00 | 87 | 1014.4 |
| 20260505113709 | 12 | 0 | 0.0 | 3.2 | 0.00 | 0.18 | 0.00 | 87 | 1014.4 |
| 20260505113607 | 12 | 129 | 0.0 | 3.2 | 0.00 | 0.18 | 0.00 | 87 | 1014.5 |
| 20260505113508 | 12 | 143 | 0.0 | 3.2 | 0.00 | 0.18 | 0.00 | 87 | 1014.5 |
| 20260505113407 | 12 | 181 | 1.6 | 3.2 | 0.00 | 0.18 | 0.00 | 87 | 1014.5 |
| 20260505113307 | 12 | 189 | 1.6 | 3.2 | 0.00 | 0.18 | 0.00 | 87 | 1014.4 |
| 20260505113207 | 12 | 101 | 1.6 | 3.2 | 0.00 | 0.18 | 0.00 | 87 | 1014.4 |
| 20260505113107 | 12 | 178 | 1.6 | 3.2 | 0.00 | 0.18 | 0.00 | 87 | 1014.4 |
| 20260505113007 | 12 | 95 | 1.6 | 3.2 | 0.00 | 0.18 | 0.00 | 86 | 1014.4 |
| 20260505112907 | 12 | 175 | 1.6 | 3.2 | 0.00 | 0.18 | 0.00 | 86 | 1014.4 |
| 20260505112807 | 12 | 127 | 1.6 | 3.2 | 0.00 | 0.18 | 0.00 | 86 | 1014.4 |
| 20260505112707 | 12 | 118 | 1.6 | 3.2 | 0.00 | 0.18 | 0.00 | 87 | 1014.4 |
| 20260505112607 | 12 | 0 | 1.6 | 3.2 | 0.00 | 0.18 | 0.00 | 86 | 1014.4 |
| 20260505112508 | 12 | 136 | 1.6 | 3.2 | 0.00 | 0.18 | 0.00 | 86 | 1014.5 |
| 20260505112406 | 12 | 153 | 1.6 | 3.2 | 0.00 | 0.18 | 0.00 | 86 | 1014.5 |
| 20260505112306 | 12 | 113 | 1.6 | 3.2 | 0.00 | 0.18 | 0.00 | 86 | 1014.5 |
| 20260505112207 | 12 | 97 | 1.6 | 3.2 | 0.00 | 0.18 | 0.00 | 86 | 1014.5 |
| 20260505112107 | 12 | 55 | 1.6 | 3.2 | 0.00 | 0.18 | 0.00 | 86 | 1014.5 |
| 20260505112006 | 12 | 166 | 1.6 | 3.2 | 0.00 | 0.18 | 0.00 | 86 | 1014.5 |
| 20260505111906 | 12 | 166 | 1.6 | 3.2 | 0.00 | 0.18 | 0.00 | 86 | 1014.4 |
| 20260505111806 | 12 | 127 | 1.6 | 3.2 | 0.00 | 0.18 | 0.00 | 86 | 1014.4 |
| 20260505111707 | 12 | 174 | 1.6 | 3.2 | 0.00 | 0.18 | 0.00 | 86 | 1014.4 |
| 20260505111606 | 12 | 174 | 1.6 | 3.2 | 0.00 | 0.18 | 0.00 | 86 | 1014.4 |
| 20260505111506 | 12 | 89 | 1.6 | 3.2 | 0.00 | 0.18 | 0.00 | 87 | 1014.5 |
| 20260505111406 | 12 | 138 | 1.6 | 3.2 | 0.00 | 0.18 | 0.00 | 87 | 1014.4 |
| 20260505111307 | 12 | 175 | 1.6 | 3.2 | 0.00 | 0.18 | 0.00 | 87 | 1014.4 |
| 20260505111206 | 12 | 111 | 1.6 | 3.2 | 0.00 | 0.18 | 0.00 | 87 | 1014.4 |
| 20260505111106 | 12 | 113 | 1.6 | 3.2 | 0.00 | 0.18 | 0.00 | 87 | 1014.4 |
| 20260505111007 | 12 | 288 | 1.6 | 3.2 | 0.00 | 0.18 | 0.00 | 87 | 1014.4 |
| 20260505110906 | 12 | 16 | 1.6 | 3.2 | 0.00 | 0.18 | 0.00 | 87 | 1014.4 |
| 20260505110806 | 12 | 85 | 1.6 | 3.2 | 0.00 | 0.18 | 0.00 | 87 | 1014.4 |
| 20260505110707 | 12 | 162 | 1.6 | 3.2 | 0.00 | 0.18 | 0.00 | 87 | 1014.4 |
| 20260505110607 | 12 | 176 | 1.6 | 3.2 | 0.00 | 0.18 | 0.00 | 87 | 1014.4 |
| 20260505110508 | 12 | 87 | 1.6 | 3.2 | 0.00 | 0.18 | 0.00 | 87 | 1014.4 |
| 20260505110407 | 12 | 82 | 1.6 | 3.2 | 0.00 | 0.18 | 0.00 | 87 | 1014.3 |
| 20260505110307 | 12 | 0 | 1.6 | 3.2 | 0.00 | 0.18 | 0.00 | 86 | 1014.3 |
| 20260505110206 | 12 | 164 | 1.6 | 3.2 | 0.00 | 0.18 | 0.00 | 86 | 1014.3 |
| 20260505110106 | 12 | 191 | 1.6 | 3.2 | 0.00 | 0.18 | 0.00 | 86 | 1014.3 |
| 20260505102141 | 12 | 183 | 1.6 | 3.2 | 0.00 | 0.18 | 0.00 | 85 | 1014.0 |
| 20260505102041 | 12 | 116 | 1.6 | 3.2 | 0.00 | 0.18 | 0.00 | 85 | 1014.0 |
| 20260505101941 | 12 | 159 | 1.6 | 3.2 | 0.00 | 0.18 | 0.00 | 86 | 1014.0 |
| 20260505101841 | 12 | 84 | 1.6 | 3.2 | 0.00 | 0.18 | 0.00 | 86 | 1013.9 |
| 20260505101742 | 12 | 72 | 1.6 | 3.2 | 0.00 | 0.18 | 0.00 | 85 | 1013.9 |
| 20260505101641 | 12 | 75 | 1.6 | 3.2 | 0.00 | 0.18 | 0.00 | 85 | 1013.9 |
| 20260505101541 | 12 | 110 | 1.6 | 3.2 | 0.00 | 0.18 | 0.00 | 85 | 1013.9 |
| 20260505101440 | 12 | 0 | 1.6 | 3.2 | 0.00 | 0.18 | 0.00 | 85 | 1013.9 |
| 20260505101341 | 12 | 190 | 1.6 | 3.2 | 0.00 | 0.18 | 0.00 | 85 | 1013.9 |
| 20260505101241 | 12 | 0 | 1.6 | 3.2 | 0.00 | 0.18 | 0.00 | 85 | 1013.9 |
| 20260505101142 | 12 | 94 | 1.6 | 3.2 | 0.00 | 0.18 | 0.00 | 85 | 1014.0 |
| 20260505101042 | 12 | 66 | 1.6 | 3.2 | 0.00 | 0.18 | 0.00 | 86 | 1014.0 |
| 20260505100941 | 12 | 107 | 1.6 | 3.2 | 0.00 | 0.18 | 0.00 | 86 | 1014.0 |
| 20260505100841 | 12 | 187 | 1.6 | 3.2 | 0.00 | 0.18 | 0.00 | 85 | 1014.0 |
| 20260505100742 | 12 | 0 | 1.6 | 3.2 | 0.00 | 0.18 | 0.00 | 85 | 1014.0 |
| 20260505100642 | 12 | 87 | 1.6 | 3.2 | 0.00 | 0.18 | 0.00 | 85 | 1014.0 |
| 20260505100542 | 12 | 169 | 1.6 | 3.2 | 0.00 | 0.18 | 0.00 | 85 | 1014.0 |
| 20260505100442 | 12 | 159 | 1.6 | 3.2 | 0.00 | 0.18 | 0.00 | 85 | 1014.0 |
| 20260505100341 | 12 | 117 | 1.6 | 3.2 | 0.00 | 0.18 | 0.00 | 85 | 1014.0 |
| 20260505100241 | 12 | 82 | 1.6 | 3.2 | 0.00 | 0.18 | 0.00 | 85 | 1014.0 |
| 20260505100158 | 12 | 132 | 1.6 | 3.2 | 0.00 | 0.18 | 0.00 | 85 | 1014.0 |
| 20260505100038 | 12 | 180 | 1.6 | 3.2 | 0.00 | 0.18 | 0.00 | 85 | 1014.0 |
| 20260505095938 | 12 | 158 | 1.6 | 3.2 | 0.00 | 0.18 | 0.00 | 85 | 1014.0 |
| 20260505095837 | 12 | 155 | 1.6 | 3.2 | 0.00 | 0.18 | 0.00 | 85 | 1014.0 |
| 20260505095737 | 12 | 160 | 0.0 | 3.2 | 0.00 | 0.18 | 0.00 | 85 | 1014.0 |
| 20260505095637 | 12 | 83 | 0.0 | 3.2 | 0.00 | 0.18 | 0.00 | 85 | 1014.0 |
| 20260505095536 | 12 | 74 | 0.0 | 3.2 | 0.00 | 0.18 | 0.00 | 85 | 1014.0 |
| 20260505095435 | 12 | 99 | 0.0 | 3.2 | 0.00 | 0.18 | 0.00 | 85 | 1014.0 |
| 20260505095335 | 12 | 76 | 0.0 | 1.6 | 0.00 | 0.18 | 0.00 | 85 | 1014.0 |
| 20260505095233 | 12 | 169 | 0.0 | 3.2 | 0.00 | 0.18 | 0.00 | 85 | 1014.0 |
| 20260505095129 | 12 | 89 | 1.6 | 3.2 | 0.00 | 0.18 | 0.00 | 85 | 1014.0 |
| 20260505095030 | 12 | 0 | 1.6 | 3.2 | 0.00 | 0.18 | 0.00 | 85 | 1014.0 |
| 20260505094926 | 12 | 177 | 1.6 | 3.2 | 0.00 | 0.18 | 0.00 | 85 | 1014.0 |
| 20260505094823 | 12 | 77 | 1.6 | 3.2 | 0.00 | 0.18 | 0.00 | 85 | 1014.0 |
| 20260505094722 | 13 | 180 | 1.6 | 3.2 | 0.00 | 0.18 | 0.00 | 85 | 1014.0 |
| 20260505094621 | 13 | 111 | 1.6 | 3.2 | 0.00 | 0.18 | 0.00 | 85 | 1014.0 |
| 20260505094518 | 13 | 102 | 1.6 | 3.2 | 0.00 | 0.18 | 0.00 | 85 | 1014.0 |
| 20260505094417 | 13 | 94 | 1.6 | 3.2 | 0.00 | 0.18 | 0.00 | 85 | 1013.9 |
| 20260505094317 | 13 | 63 | 1.6 | 3.2 | 0.00 | 0.18 | 0.00 | 84 | 1013.9 |
| 20260505094218 | 13 | 162 | 1.6 | 3.2 | 0.00 | 0.18 | 0.00 | 84 | 1013.9 |
| 20260505094117 | 13 | 179 | 1.6 | 3.2 | 0.00 | 0.18 | 0.00 | 84 | 1013.9 |
| 20260505094017 | 13 | 177 | 1.6 | 3.2 | 0.00 | 0.18 | 0.00 | 84 | 1013.9 |
| 20260505093916 | 13 | 73 | 1.6 | 3.2 | 0.00 | 0.18 | 0.00 | 84 | 1013.9 |
| 20260505093814 | 13 | 145 | 1.6 | 3.2 | 0.00 | 0.18 | 0.00 | 84 | 1013.9 |
| 20260505093716 | 13 | 184 | 1.6 | 3.2 | 0.00 | 0.18 | 0.00 | 84 | 1013.9 |
| 20260505093611 | 13 | 107 | 1.6 | 3.2 | 0.00 | 0.18 | 0.00 | 84 | 1013.9 |
| 20260505093512 | 13 | 174 | 1.6 | 3.2 | 0.00 | 0.18 | 0.00 | 83 | 1013.9 |
| 20260505093409 | 13 | 144 | 1.6 | 3.2 | 0.00 | 0.18 | 0.00 | 83 | 1013.9 |
| 20260505093310 | 13 | 0 | 1.6 | 3.2 | 0.00 | 0.18 | 0.00 | 83 | 1013.9 |
| 20260505093213 | 13 | 123 | 1.6 | 3.2 | 0.00 | 0.18 | 0.00 | 83 | 1013.9 |
| 20260505093147 | 13 | 188 | 1.6 | 3.2 | 0.00 | 0.18 | 0.00 | 83 | 1013.8 |
| 20260505093007 | 13 | 136 | 1.6 | 3.2 | 0.00 | 0.18 | 0.00 | 83 | 1013.8 |
| 20260505092908 | 13 | 112 | 1.6 | 3.2 | 0.00 | 0.18 | 0.00 | 83 | 1013.8 |
| 20260505092808 | 13 | 119 | 1.6 | 3.2 | 0.00 | 0.18 | 0.00 | 83 | 1013.8 |
| 20260505092713 | 13 | 118 | 1.6 | 3.2 | 0.00 | 0.18 | 0.00 | 84 | 1013.8 |
| 20260505092608 | 13 | 112 | 1.6 | 3.2 | 0.00 | 0.18 | 0.00 | 83 | 1013.8 |
| 20260505092508 | 13 | 163 | 1.6 | 3.2 | 0.00 | 0.18 | 0.00 | 83 | 1013.8 |
| 20260505092408 | 13 | 91 | 1.6 | 3.2 | 0.00 | 0.18 | 0.00 | 83 | 1013.8 |
| 20260505092310 | 13 | 85 | 1.6 | 3.2 | 0.00 | 0.18 | 0.00 | 83 | 1013.8 |
| 20260505092211 | 13 | 87 | 1.6 | 3.2 | 0.00 | 0.18 | 0.00 | 84 | 1013.8 |
| 20260505092152 | 13 | 54 | 1.6 | 3.2 | 0.00 | 0.18 | 0.00 | 83 | 1013.8 |
| 20260505092008 | 13 | 74 | 1.6 | 3.2 | 0.00 | 0.18 | 0.00 | 83 | 1013.8 |
| 20260505091908 | 13 | 87 | 1.6 | 3.2 | 0.00 | 0.18 | 0.00 | 83 | 1013.8 |
| 20260505091808 | 13 | 0 | 1.6 | 3.2 | 0.00 | 0.18 | 0.00 | 83 | 1013.8 |
| 20260505091712 | 13 | 94 | 1.6 | 3.2 | 0.00 | 0.18 | 0.00 | 83 | 1013.7 |
| 20260505091608 | 13 | 249 | 1.6 | 3.2 | 0.00 | 0.18 | 0.00 | 83 | 1013.7 |
| 20260505091508 | 13 | 206 | 1.6 | 3.2 | 0.00 | 0.18 | 0.00 | 83 | 1013.7 |
| 20260505091408 | 13 | 153 | 1.6 | 3.2 | 0.00 | 0.18 | 0.00 | 83 | 1013.7 |
| 20260505091308 | 13 | 182 | 1.6 | 3.2 | 0.00 | 0.18 | 0.00 | 84 | 1013.7 |
| 20260505091212 | 13 | 127 | 1.6 | 3.2 | 0.00 | 0.18 | 0.00 | 83 | 1013.7 |
| 20260505091107 | 13 | 169 | 1.6 | 3.2 | 0.00 | 0.18 | 0.00 | 83 | 1013.7 |
| 20260505091008 | 13 | 165 | 1.6 | 3.2 | 0.00 | 0.18 | 0.00 | 83 | 1013.6 |
| 20260505090908 | 13 | 75 | 1.6 | 3.2 | 0.00 | 0.18 | 0.00 | 83 | 1013.6 |
| 20260505090808 | 13 | 175 | 1.6 | 3.2 | 0.00 | 0.18 | 0.00 | 83 | 1013.6 |
| 20260505090712 | 13 | 77 | 1.6 | 3.2 | 0.00 | 0.18 | 0.00 | 83 | 1013.6 |
| 20260505090608 | 13 | 70 | 1.6 | 3.2 | 0.00 | 0.18 | 0.00 | 83 | 1013.6 |
| 20260505090509 | 13 | 162 | 1.6 | 3.2 | 0.00 | 0.18 | 0.00 | 83 | 1013.6 |
| 20260505090408 | 13 | 65 | 1.6 | 3.2 | 0.00 | 0.18 | 0.00 | 83 | 1013.6 |
| 20260505090309 | 13 | 168 | 1.6 | 3.2 | 0.00 | 0.18 | 0.00 | 83 | 1013.6 |
| 20260505090211 | 13 | 0 | 1.6 | 3.2 | 0.00 | 0.18 | 0.00 | 83 | 1013.5 |
| 20260505090149 | 13 | 91 | 1.6 | 3.2 | 0.00 | 0.18 | 0.00 | 83 | 1013.5 |
| 20260505090008 | 13 | 73 | 1.6 | 3.2 | 0.00 | 0.18 | 0.00 | 82 | 1013.5 |
| 20260505085908 | 13 | 94 | 1.6 | 3.2 | 0.00 | 0.18 | 0.00 | 82 | 1013.5 |
| 20260505085808 | 13 | 76 | 1.6 | 3.2 | 0.00 | 0.18 | 0.00 | 82 | 1013.5 |
| 20260505085711 | 13 | 178 | 1.6 | 3.2 | 0.00 | 0.18 | 0.00 | 82 | 1013.5 |
| 20260505085608 | 13 | 0 | 1.6 | 3.2 | 0.00 | 0.18 | 0.00 | 82 | 1013.5 |
| 20260505085508 | 13 | 80 | 1.6 | 3.2 | 0.00 | 0.18 | 0.00 | 82 | 1013.5 |
| 20260505085408 | 13 | 83 | 1.6 | 3.2 | 0.00 | 0.18 | 0.00 | 82 | 1013.5 |
| 20260505085308 | 13 | 87 | 1.6 | 3.2 | 0.00 | 0.18 | 0.00 | 82 | 1013.5 |
| 20260505085211 | 13 | 83 | 1.6 | 3.2 | 0.00 | 0.18 | 0.00 | 82 | 1013.5 |
| 20260505085108 | 13 | 163 | 1.6 | 3.2 | 0.00 | 0.18 | 0.00 | 82 | 1013.5 |
| 20260505085007 | 13 | 86 | 1.6 | 3.2 | 0.00 | 0.18 | 0.00 | 82 | 1013.5 |
| 20260505084907 | 13 | 94 | 1.6 | 3.2 | 0.00 | 0.18 | 0.00 | 83 | 1013.5 |
| 20260505084808 | 13 | 0 | 1.6 | 3.2 | 0.00 | 0.18 | 0.00 | 83 | 1013.5 |
| 20260505084706 | 13 | 87 | 1.6 | 3.2 | 0.00 | 0.18 | 0.00 | 83 | 1013.6 |
| 20260505084604 | 13 | 0 | 1.6 | 3.2 | 0.00 | 0.18 | 0.00 | 83 | 1013.6 |
| 20260505084500 | 13 | 89 | 1.6 | 3.2 | 0.00 | 0.18 | 0.00 | 84 | 1013.6 |
| 20260505084358 | 13 | 80 | 1.6 | 3.2 | 0.00 | 0.18 | 0.00 | 83 | 1013.6 |
| 20260505084258 | 13 | 118 | 1.6 | 3.2 | 0.00 | 0.18 | 0.00 | 84 | 1013.6 |
| 20260505084158 | 13 | 268 | 1.6 | 1.6 | 0.00 | 0.18 | 0.00 | 84 | 1013.5 |
| 20260505084058 | 13 | 82 | 1.6 | 1.6 | 0.00 | 0.18 | 0.00 | 84 | 1013.5 |
| 20260505083958 | 13 | 38 | 1.6 | 1.6 | 0.00 | 0.18 | 0.00 | 85 | 1013.5 |
| 20260505083858 | 13 | 98 | 0.0 | 1.6 | 0.00 | 0.18 | 0.00 | 86 | 1013.5 |
| 20260505083758 | 13 | 81 | 0.0 | 1.6 | 0.00 | 0.18 | 0.00 | 85 | 1013.5 |
| 20260505083657 | 13 | 0 | 0.0 | 1.6 | 0.00 | 0.18 | 0.00 | 85 | 1013.5 |
| 20260505083558 | 13 | 73 | 0.0 | 1.6 | 0.00 | 0.18 | 0.00 | 85 | 1013.5 |
| 20260505083458 | 13 | 54 | 0.0 | 1.6 | 0.00 | 0.18 | 0.00 | 85 | 1013.5 |
| 20260505083359 | 13 | 8 | 0.0 | 1.6 | 0.00 | 0.18 | 0.00 | 85 | 1013.5 |
| 20260505083302 | 13 | 60 | 0.0 | 1.6 | 0.00 | 0.18 | 0.00 | 85 | 1013.5 |
| 20260505083157 | 13 | 179 | 0.0 | 1.6 | 0.00 | 0.18 | 0.00 | 85 | 1013.5 |
| 20260505083140 | 13 | 75 | 0.0 | 1.6 | 0.00 | 0.18 | 0.00 | 85 | 1013.5 |
| 20260505082958 | 13 | 75 | 0.0 | 1.6 | 0.00 | 0.18 | 0.00 | 85 | 1013.5 |
| 20260505082858 | 13 | 170 | 0.0 | 1.6 | 0.00 | 0.18 | 0.00 | 85 | 1013.5 |
| 20260505082758 | 13 | 0 | 0.0 | 1.6 | 0.00 | 0.18 | 0.00 | 85 | 1013.5 |
| 20260505082658 | 13 | 174 | 1.6 | 3.2 | 0.00 | 0.18 | 0.00 | 85 | 1013.5 |
| 20260505082557 | 13 | 98 | 1.6 | 3.2 | 0.00 | 0.18 | 0.00 | 85 | 1013.5 |
| 20260505082458 | 13 | 88 | 1.6 | 3.2 | 0.00 | 0.18 | 0.00 | 85 | 1013.5 |
| 20260505082258 | 13 | 0 | 1.6 | 3.2 | 0.00 | 0.18 | 0.00 | 85 | 1013.4 |
| 20260505082158 | 13 | 100 | 1.6 | 3.2 | 0.00 | 0.18 | 0.00 | 85 | 1013.4 |
| 20260505082058 | 14 | 170 | 1.6 | 3.2 | 0.00 | 0.18 | 0.00 | 84 | 1013.4 |
| 20260505081958 | 14 | 0 | 1.6 | 3.2 | 0.00 | 0.18 | 0.00 | 84 | 1013.4 |
| 20260505081859 | 14 | 65 | 1.6 | 3.2 | 0.00 | 0.18 | 0.00 | 84 | 1013.4 |
| 20260505081758 | 14 | 105 | 1.6 | 3.2 | 0.00 | 0.18 | 0.00 | 84 | 1013.4 |
| 20260505081658 | 14 | 85 | 1.6 | 3.2 | 0.00 | 0.18 | 0.00 | 84 | 1013.4 |
| 20260505081558 | 14 | 34 | 1.6 | 3.2 | 0.00 | 0.18 | 0.00 | 84 | 1013.4 |
| 20260505081458 | 14 | 50 | 1.6 | 3.2 | 0.00 | 0.18 | 0.00 | 84 | 1013.4 |
| 20260505081358 | 14 | 56 | 1.6 | 3.2 | 0.00 | 0.18 | 0.00 | 84 | 1013.4 |
| 20260505081259 | 14 | 81 | 1.6 | 3.2 | 0.00 | 0.18 | 0.00 | 84 | 1013.4 |
| 20260505081158 | 14 | 21 | 1.6 | 3.2 | 0.00 | 0.18 | 0.00 | 84 | 1013.4 |
| 20260505081058 | 14 | 17 | 1.6 | 3.2 | 0.00 | 0.18 | 0.00 | 84 | 1013.4 |
| 20260505080958 | 14 | 78 | 1.6 | 3.2 | 0.00 | 0.18 | 0.00 | 84 | 1013.4 |
| 20260505080859 | 14 | 85 | 1.6 | 3.2 | 0.00 | 0.18 | 0.00 | 83 | 1013.4 |
| 20260505080758 | 14 | 290 | 1.6 | 3.2 | 0.00 | 0.18 | 0.00 | 83 | 1013.4 |
| 20260505080658 | 14 | 49 | 1.6 | 3.2 | 0.00 | 0.18 | 0.00 | 83 | 1013.4 |
| 20260505080557 | 14 | 59 | 1.6 | 3.2 | 0.00 | 0.18 | 0.00 | 83 | 1013.4 |
| 20260505080455 | 14 | 31 | 1.6 | 3.2 | 0.00 | 0.18 | 0.00 | 83 | 1013.4 |
| 20260505080349 | 14 | 0 | 1.6 | 3.2 | 0.00 | 0.18 | 0.00 | 83 | 1013.3 |
| 20260505080250 | 14 | 56 | 1.6 | 3.2 | 0.00 | 0.18 | 0.00 | 83 | 1013.3 |
| 20260505080149 | 14 | 69 | 1.6 | 3.2 | 0.00 | 0.18 | 0.00 | 83 | 1013.3 |
| 20260505080049 | 14 | 89 | 1.6 | 3.2 | 0.00 | 0.18 | 0.00 | 83 | 1013.3 |
| 20260505075950 | 14 | 30 | 1.6 | 3.2 | 0.00 | 0.18 | 0.00 | 83 | 1013.3 |
| 20260505075849 | 14 | 81 | 1.6 | 3.2 | 0.00 | 0.18 | 0.00 | 83 | 1013.3 |
| 20260505075749 | 14 | 48 | 1.6 | 3.2 | 0.00 | 0.18 | 0.00 | 83 | 1013.3 |
| 20260505075649 | 14 | 99 | 1.6 | 3.2 | 0.00 | 0.18 | 0.00 | 83 | 1013.3 |
| 20260505075549 | 14 | 19 | 1.6 | 3.2 | 0.00 | 0.18 | 0.00 | 83 | 1013.3 |
| 20260505075449 | 14 | 53 | 1.6 | 3.2 | 0.00 | 0.18 | 0.00 | 83 | 1013.3 |
| 20260505075349 | 14 | 39 | 1.6 | 3.2 | 0.00 | 0.18 | 0.00 | 83 | 1013.3 |
| 20260505075250 | 14 | 41 | 1.6 | 3.2 | 0.00 | 0.18 | 0.00 | 83 | 1013.3 |
| 20260505075149 | 14 | 15 | 1.6 | 3.2 | 0.00 | 0.18 | 0.00 | 83 | 1013.3 |
| 20260505075049 | 14 | 57 | 1.6 | 3.2 | 0.00 | 0.18 | 0.00 | 83 | 1013.3 |
| 20260505074948 | 14 | 56 | 1.6 | 3.2 | 0.00 | 0.18 | 0.00 | 83 | 1013.3 |
| 20260505074849 | 14 | 56 | 1.6 | 3.2 | 0.00 | 0.18 | 0.00 | 82 | 1013.3 |
| 20260505074749 | 15 | 95 | 1.6 | 3.2 | 0.00 | 0.18 | 0.00 | 82 | 1013.3 |
| 20260505074649 | 15 | 69 | 1.6 | 3.2 | 0.00 | 0.18 | 0.00 | 82 | 1013.3 |
| 20260505074549 | 15 | 0 | 1.6 | 3.2 | 0.00 | 0.18 | 0.00 | 82 | 1013.3 |
| 20260505074449 | 15 | 0 | 1.6 | 3.2 | 0.00 | 0.18 | 0.00 | 82 | 1013.2 |
| 20260505074348 | 15 | 157 | 1.6 | 3.2 | 0.00 | 0.18 | 0.00 | 82 | 1013.2 |
| 20260505074249 | 15 | 67 | 1.6 | 3.2 | 0.00 | 0.18 | 0.00 | 81 | 1013.2 |
| 20260505074149 | 15 | 0 | 1.6 | 3.2 | 0.00 | 0.18 | 0.00 | 81 | 1013.2 |
| 20260505074047 | 15 | 105 | 1.6 | 3.2 | 0.00 | 0.18 | 0.00 | 81 | 1013.1 |
| 20260505073948 | 15 | 91 | 1.6 | 3.2 | 0.00 | 0.18 | 0.00 | 81 | 1013.1 |
| 20260505073847 | 15 | 156 | 1.6 | 3.2 | 0.00 | 0.18 | 0.00 | 82 | 1013.1 |
| 20260505073747 | 15 | 11 | 1.6 | 3.2 | 0.00 | 0.18 | 0.00 | 81 | 1013.1 |
| 20260505073647 | 15 | 83 | 1.6 | 3.2 | 0.00 | 0.18 | 0.00 | 80 | 1013.1 |
| 20260505073547 | 15 | 77 | 1.6 | 3.2 | 0.00 | 0.18 | 0.00 | 80 | 1013.1 |
| 20260505073446 | 15 | 30 | 1.6 | 3.2 | 0.00 | 0.18 | 0.00 | 80 | 1013.0 |
| 20260505073346 | 15 | 91 | 1.6 | 3.2 | 0.00 | 0.18 | 0.00 | 80 | 1013.0 |
| 20260505073241 | 15 | 133 | 1.6 | 3.2 | 0.00 | 0.18 | 0.00 | 80 | 1013.0 |
| 20260505073141 | 15 | 60 | 1.6 | 3.2 | 0.00 | 0.18 | 0.00 | 80 | 1013.0 |
| 20260505073041 | 15 | 126 | 1.6 | 3.2 | 0.00 | 0.18 | 0.00 | 80 | 1013.0 |
| 20260505072942 | 15 | 105 | 1.6 | 4.8 | 0.00 | 0.18 | 0.00 | 80 | 1013.0 |
| 20260505072842 | 15 | 113 | 1.6 | 4.8 | 0.00 | 0.18 | 0.00 | 80 | 1013.0 |
| 20260505072742 | 15 | 82 | 1.6 | 4.8 | 0.00 | 0.18 | 0.00 | 80 | 1013.0 |
| 20260505072642 | 15 | 0 | 1.6 | 4.8 | 0.00 | 0.18 | 0.00 | 80 | 1013.0 |
| 20260505072539 | 15 | 193 | 1.6 | 4.8 | 0.00 | 0.18 | 0.00 | 80 | 1012.9 |
| 20260505072439 | 15 | 101 | 1.6 | 4.8 | 0.00 | 0.18 | 0.00 | 80 | 1012.9 |
| 20260505072339 | 15 | 97 | 1.6 | 4.8 | 0.00 | 0.18 | 0.00 | 80 | 1012.9 |
| 20260505072239 | 15 | 162 | 1.6 | 4.8 | 0.00 | 0.18 | 0.00 | 79 | 1012.9 |
| 20260505072136 | 15 | 0 | 1.6 | 4.8 | 0.00 | 0.18 | 0.00 | 79 | 1012.9 |
| 20260505072036 | 15 | 90 | 1.6 | 4.8 | 0.00 | 0.18 | 0.00 | 79 | 1012.9 |
| 20260505071936 | 15 | 247 | 1.6 | 4.8 | 0.00 | 0.18 | 0.00 | 80 | 1012.9 |
| 20260505071836 | 15 | 114 | 1.6 | 3.2 | 0.00 | 0.18 | 0.00 | 80 | 1012.8 |
| 20260505071736 | 15 | 82 | 1.6 | 3.2 | 0.00 | 0.18 | 0.00 | 80 | 1012.8 |
| 20260505071636 | 15 | 10 | 1.6 | 3.2 | 0.00 | 0.18 | 0.00 | 80 | 1012.8 |
| 20260505071536 | 15 | 173 | 1.6 | 3.2 | 0.00 | 0.18 | 0.00 | 80 | 1012.8 |
| 20260505071437 | 15 | 134 | 1.6 | 3.2 | 0.00 | 0.18 | 0.00 | 79 | 1012.8 |
| 20260505071336 | 15 | 84 | 1.6 | 3.2 | 0.00 | 0.18 | 0.00 | 79 | 1012.8 |
| 20260505071236 | 15 | 275 | 1.6 | 3.2 | 0.00 | 0.18 | 0.00 | 79 | 1012.8 |
| 20260505071137 | 15 | 89 | 1.6 | 3.2 | 0.00 | 0.18 | 0.00 | 79 | 1012.8 |
| 20260505071037 | 15 | 5 | 1.6 | 3.2 | 0.00 | 0.18 | 0.00 | 79 | 1012.8 |
| 20260505070937 | 15 | 163 | 1.6 | 3.2 | 0.00 | 0.18 | 0.00 | 79 | 1012.8 |
| 20260505070837 | 15 | 23 | 1.6 | 3.2 | 0.00 | 0.18 | 0.00 | 79 | 1012.7 |
| 20260505070736 | 15 | 97 | 1.6 | 3.2 | 0.00 | 0.18 | 0.00 | 79 | 1012.7 |
| 20260505070643 | 15 | 278 | 1.6 | 3.2 | 0.00 | 0.18 | 0.00 | 79 | 1012.7 |
| 20260505070633 | 15 | 0 | 1.6 | 3.2 | 0.00 | 0.18 | 0.00 | 79 | 1012.7 |
| 20260505070436 | 15 | 80 | 1.6 | 3.2 | 0.00 | 0.18 | 0.00 | 79 | 1012.7 |
| 20260505070336 | 15 | 87 | 1.6 | 3.2 | 0.00 | 0.18 | 0.00 | 80 | 1012.7 |
| 20260505070236 | 15 | 12 | 1.6 | 3.2 | 0.00 | 0.18 | 0.00 | 80 | 1012.7 |
| 20260505070137 | 15 | 300 | 1.6 | 3.2 | 0.00 | 0.18 | 0.00 | 80 | 1012.7 |
| 20260505070036 | 15 | 0 | 1.6 | 3.2 | 0.00 | 0.18 | 0.00 | 80 | 1012.7 |
| 20260505065936 | 15 | 58 | 1.6 | 3.2 | 0.00 | 0.18 | 0.18 | 80 | 1012.7 |
| 20260505065837 | 15 | 167 | 1.6 | 3.2 | 0.00 | 0.18 | 0.18 | 80 | 1012.7 |
| 20260505065737 | 15 | 223 | 1.6 | 3.2 | 0.00 | 0.18 | 0.18 | 81 | 1012.7 |
| 20260505065643 | 15 | 165 | 1.6 | 3.2 | 0.00 | 0.18 | 0.18 | 81 | 1012.7 |
| 20260505065633 | 15 | 356 | 0.0 | 3.2 | 0.00 | 0.18 | 0.18 | 81 | 1012.7 |
| 20260505065437 | 15 | 47 | 0.0 | 3.2 | 0.00 | 0.18 | 0.18 | 81 | 1012.7 |
| 20260505065336 | 15 | 105 | 0.0 | 3.2 | 0.00 | 0.18 | 0.18 | 82 | 1012.6 |
| 20260505065236 | 15 | 2 | 0.0 | 3.2 | 0.00 | 0.18 | 0.18 | 81 | 1012.6 |
| 20260505065136 | 15 | 288 | 0.0 | 3.2 | 0.00 | 0.18 | 0.18 | 81 | 1012.6 |
| 20260505065036 | 15 | 0 | 0.0 | 3.2 | 0.00 | 0.18 | 0.18 | 82 | 1012.6 |
| 20260505064936 | 15 | 93 | 0.0 | 3.2 | 0.00 | 0.18 | 0.18 | 82 | 1012.6 |
| 20260505064835 | 15 | 84 | 0.0 | 3.2 | 0.00 | 0.18 | 0.18 | 82 | 1012.6 |
| 20260505064733 | 15 | 134 | 0.0 | 3.2 | 0.00 | 0.18 | 0.18 | 82 | 1012.5 |
| 20260505064633 | 15 | 66 | 0.0 | 3.2 | 0.00 | 0.18 | 0.18 | 82 | 1012.5 |
| 20260505064534 | 15 | 235 | 0.0 | 3.2 | 0.00 | 0.18 | 0.18 | 82 | 1012.5 |
| 20260505064434 | 15 | 266 | 0.0 | 3.2 | 0.00 | 0.18 | 0.18 | 82 | 1012.5 |
| 20260505064233 | 15 | 231 | 0.0 | 3.2 | 0.00 | 0.18 | 0.18 | 83 | 1012.5 |
| 20260505064133 | 15 | 100 | 0.0 | 3.2 | 0.00 | 0.18 | 0.18 | 83 | 1012.4 |
| 20260505064031 | 15 | 101 | 0.0 | 3.2 | 0.00 | 0.18 | 0.18 | 83 | 1012.4 |
| 20260505063931 | 15 | 173 | 0.0 | 3.2 | 0.00 | 0.18 | 0.18 | 83 | 1012.4 |
| 20260505063831 | 15 | 182 | 0.0 | 3.2 | 0.00 | 0.18 | 0.18 | 83 | 1012.4 |
| 20260505063731 | 15 | 181 | 0.0 | 3.2 | 0.00 | 0.18 | 0.18 | 83 | 1012.4 |
| 20260505063631 | 15 | 169 | 0.0 | 3.2 | 0.00 | 0.18 | 0.18 | 83 | 1012.3 |
| 20260505063528 | 15 | 163 | 0.0 | 3.2 | 0.00 | 0.18 | 0.18 | 83 | 1012.3 |
| 20260505063428 | 15 | 106 | 0.0 | 3.2 | 0.00 | 0.18 | 0.18 | 83 | 1012.3 |
| 20260505063327 | 15 | 87 | 0.0 | 3.2 | 0.00 | 0.18 | 0.18 | 83 | 1012.3 |
| 20260505063227 | 15 | 86 | 0.0 | 3.2 | 0.00 | 0.18 | 0.18 | 83 | 1012.3 |
| 20260505063128 | 15 | 0 | 0.0 | 1.6 | 0.00 | 0.18 | 0.18 | 83 | 1012.3 |
| 20260505063028 | 15 | 114 | 0.0 | 1.6 | 0.00 | 0.18 | 0.18 | 83 | 1012.3 |
| 20260505062925 | 15 | 0 | 0.0 | 1.6 | 0.00 | 0.18 | 0.18 | 82 | 1012.3 |
| 20260505062825 | 15 | 0 | 0.0 | 1.6 | 0.00 | 0.18 | 0.18 | 82 | 1012.3 |
| 20260505062724 | 15 | 98 | 0.0 | 1.6 | 0.00 | 0.18 | 0.18 | 82 | 1012.3 |
| 20260505062625 | 15 | 172 | 0.0 | 1.6 | 0.00 | 0.18 | 0.18 | 82 | 1012.2 |
| 20260505062527 | 15 | 129 | 0.0 | 1.6 | 0.00 | 0.18 | 0.18 | 82 | 1012.2 |
| 20260505062425 | 15 | 0 | 0.0 | 1.6 | 0.00 | 0.18 | 0.18 | 82 | 1012.2 |
| 20260505062349 | 15 | 161 | 0.0 | 3.2 | 0.00 | 0.18 | 0.18 | 81 | 1012.2 |
| 20260505062222 | 15 | 0 | 0.0 | 3.2 | 0.00 | 0.18 | 0.18 | 81 | 1012.2 |
| 20260505062134 | 15 | 0 | 0.0 | 3.2 | 0.00 | 0.18 | 0.18 | 81 | 1012.2 |
| 20260505062124 | 15 | 104 | 0.0 | 3.2 | 0.00 | 0.18 | 0.18 | 81 | 1012.1 |
| 20260505061922 | 15 | 0 | 0.0 | 3.2 | 0.00 | 0.18 | 0.18 | 81 | 1012.1 |
| 20260505061822 | 15 | 138 | 1.6 | 3.2 | 0.00 | 0.18 | 0.18 | 81 | 1012.1 |
| 20260505061722 | 15 | 96 | 1.6 | 3.2 | 0.00 | 0.18 | 0.18 | 81 | 1012.1 |
| 20260505061622 | 15 | 164 | 1.6 | 3.2 | 0.00 | 0.18 | 0.18 | 81 | 1012.0 |
| 20260505061525 | 15 | 120 | 1.6 | 3.2 | 0.00 | 0.18 | 0.18 | 81 | 1012.0 |
| 20260505061422 | 15 | 104 | 1.6 | 3.2 | 0.00 | 0.18 | 0.18 | 81 | 1012.0 |
| 20260505061323 | 16 | 177 | 1.6 | 3.2 | 0.00 | 0.18 | 0.18 | 80 | 1012.1 |
| 20260505061222 | 16 | 0 | 1.6 | 3.2 | 0.00 | 0.18 | 0.18 | 80 | 1012.1 |
| 20260505061122 | 16 | 105 | 1.6 | 3.2 | 0.00 | 0.18 | 0.18 | 80 | 1012.1 |
| 20260505061024 | 16 | 103 | 1.6 | 3.2 | 0.00 | 0.18 | 0.18 | 80 | 1012.0 |
| 20260505060921 | 16 | 121 | 1.6 | 3.2 | 0.00 | 0.18 | 0.18 | 80 | 1012.0 |
| 20260505060822 | 16 | 104 | 1.6 | 3.2 | 0.00 | 0.18 | 0.18 | 80 | 1012.0 |
| 20260505060722 | 16 | 119 | 1.6 | 3.2 | 0.00 | 0.18 | 0.18 | 80 | 1012.0 |
| 20260505060622 | 16 | 101 | 1.6 | 3.2 | 0.00 | 0.18 | 0.18 | 79 | 1012.0 |
| 20260505060524 | 16 | 165 | 1.6 | 3.2 | 0.00 | 0.18 | 0.18 | 79 | 1011.9 |
| 20260505060423 | 16 | 96 | 1.6 | 3.2 | 0.00 | 0.18 | 0.18 | 79 | 1011.9 |
| 20260505060322 | 16 | 110 | 1.6 | 3.2 | 0.00 | 0.18 | 0.18 | 79 | 1011.9 |
| 20260505060222 | 16 | 165 | 1.6 | 3.2 | 0.00 | 0.18 | 0.18 | 79 | 1011.9 |
| 20260505060122 | 16 | 126 | 1.6 | 3.2 | 0.00 | 0.18 | 0.18 | 79 | 1011.9 |
| 20260505060025 | 16 | 92 | 1.6 | 3.2 | 0.00 | 0.18 | 0.18 | 79 | 1012.0 |
| 20260505055922 | 16 | 106 | 1.6 | 3.2 | 0.00 | 0.18 | 0.18 | 79 | 1012.0 |
| 20260505055822 | 16 | 119 | 1.6 | 3.2 | 0.00 | 0.18 | 0.18 | 79 | 1012.0 |
| 20260505055722 | 16 | 137 | 1.6 | 3.2 | 0.00 | 0.18 | 0.18 | 78 | 1012.0 |
| 20260505055622 | 16 | 162 | 1.6 | 3.2 | 0.00 | 0.18 | 0.18 | 78 | 1012.0 |
| 20260505055524 | 16 | 90 | 1.6 | 3.2 | 0.00 | 0.18 | 0.18 | 78 | 1012.0 |
| 20260505055422 | 16 | 186 | 1.6 | 3.2 | 0.00 | 0.18 | 0.18 | 78 | 1012.0 |
| 20260505055322 | 16 | 129 | 1.6 | 3.2 | 0.00 | 0.18 | 0.18 | 78 | 1012.0 |
| 20260505055222 | 16 | 121 | 1.6 | 3.2 | 0.00 | 0.18 | 0.18 | 78 | 1012.0 |
| 20260505055132 | 16 | 89 | 1.6 | 3.2 | 0.00 | 0.18 | 0.18 | 78 | 1012.0 |
| 20260505055124 | 16 | 157 | 1.6 | 3.2 | 0.00 | 0.18 | 0.18 | 77 | 1012.0 |
| 20260505054922 | 16 | 0 | 0.0 | 3.2 | 0.00 | 0.18 | 0.18 | 77 | 1011.9 |
| 20260505054822 | 16 | 0 | 0.0 | 3.2 | 0.00 | 0.18 | 0.18 | 77 | 1011.9 |
| 20260505054723 | 16 | 65 | 1.6 | 3.2 | 0.00 | 0.18 | 0.18 | 78 | 1011.9 |
| 20260505054620 | 16 | 165 | 1.6 | 3.2 | 0.00 | 0.18 | 0.18 | 77 | 1011.9 |
| 20260505054524 | 16 | 88 | 0.0 | 3.2 | 0.00 | 0.18 | 0.18 | 77 | 1011.9 |
| 20260505054419 | 16 | 0 | 0.0 | 3.2 | 0.00 | 0.18 | 0.18 | 77 | 1011.9 |
| 20260505054320 | 16 | 17 | 1.6 | 3.2 | 0.00 | 0.18 | 0.18 | 76 | 1011.9 |
| 20260505054220 | 17 | 8 | 1.6 | 3.2 | 0.00 | 0.18 | 0.18 | 77 | 1011.9 |
| 20260505054120 | 17 | 76 | 1.6 | 3.2 | 0.00 | 0.18 | 0.18 | 77 | 1011.9 |
| 20260505054023 | 17 | 4 | 1.6 | 3.2 | 0.00 | 0.18 | 0.18 | 76 | 1011.9 |
| 20260505053917 | 17 | 18 | 1.6 | 3.2 | 0.00 | 0.18 | 0.18 | 76 | 1011.9 |
| 20260505053817 | 17 | 15 | 1.6 | 3.2 | 0.00 | 0.18 | 0.18 | 76 | 1011.9 |
| 20260505053717 | 17 | 0 | 1.6 | 3.2 | 0.00 | 0.18 | 0.18 | 76 | 1011.8 |
| 20260505053629 | 17 | 27 | 1.6 | 3.2 | 0.00 | 0.18 | 0.18 | 76 | 1011.8 |
| 20260505053619 | 17 | 166 | 1.6 | 3.2 | 0.00 | 0.18 | 0.18 | 76 | 1011.8 |
| 20260505053415 | 17 | 77 | 1.6 | 3.2 | 0.00 | 0.18 | 0.18 | 76 | 1011.8 |
| 20260505053314 | 17 | 81 | 1.6 | 3.2 | 0.00 | 0.18 | 0.18 | 75 | 1011.8 |
| 20260505053214 | 17 | 0 | 1.6 | 3.2 | 0.00 | 0.18 | 0.18 | 75 | 1011.8 |
| 20260505053130 | 17 | 0 | 1.6 | 3.2 | 0.00 | 0.18 | 0.18 | 75 | 1011.8 |
| 20260505053118 | 17 | 124 | 1.6 | 3.2 | 0.00 | 0.18 | 0.18 | 75 | 1011.8 |
| 20260505052910 | 17 | 86 | 1.6 | 3.2 | 0.00 | 0.18 | 0.18 | 75 | 1011.8 |
| 20260505052808 | 17 | 159 | 1.6 | 3.2 | 0.00 | 0.18 | 0.18 | 74 | 1011.8 |
| 20260505052708 | 17 | 59 | 1.6 | 4.8 | 0.00 | 0.18 | 0.18 | 74 | 1011.8 |
| 20260505052607 | 17 | 95 | 1.6 | 4.8 | 0.00 | 0.18 | 0.18 | 74 | 1011.8 |
| 20260505052507 | 17 | 97 | 1.6 | 4.8 | 0.00 | 0.18 | 0.18 | 74 | 1011.8 |
| 20260505052408 | 17 | 80 | 1.6 | 4.8 | 0.00 | 0.18 | 0.18 | 74 | 1011.8 |
| 20260505052308 | 17 | 0 | 1.6 | 4.8 | 0.00 | 0.18 | 0.18 | 73 | 1011.8 |
| 20260505052207 | 17 | 71 | 1.6 | 4.8 | 0.00 | 0.18 | 0.18 | 74 | 1011.8 |
| 20260505052124 | 17 | 20 | 1.6 | 4.8 | 0.00 | 0.18 | 0.18 | 74 | 1011.8 |
| 20260505052007 | 17 | 68 | 1.6 | 4.8 | 0.00 | 0.18 | 0.18 | 74 | 1011.8 |
| 20260505051902 | 17 | 0 | 1.6 | 4.8 | 0.00 | 0.18 | 0.18 | 73 | 1011.7 |
| 20260505051801 | 17 | 83 | 1.6 | 4.8 | 0.00 | 0.18 | 0.18 | 73 | 1011.7 |
| 20260505051702 | 17 | 353 | 1.6 | 4.8 | 0.00 | 0.18 | 0.18 | 73 | 1011.7 |
| 20260505051559 | 17 | 76 | 1.6 | 3.2 | 0.00 | 0.18 | 0.18 | 73 | 1011.7 |
| 20260505051459 | 17 | 97 | 1.6 | 3.2 | 0.00 | 0.18 | 0.18 | 73 | 1011.7 |
| 20260505051359 | 17 | 0 | 1.6 | 3.2 | 0.00 | 0.18 | 0.18 | 73 | 1011.7 |
| 20260505051259 | 17 | 91 | 1.6 | 3.2 | 0.00 | 0.18 | 0.18 | 72 | 1011.7 |
| 20260505051201 | 17 | 297 | 1.6 | 3.2 | 0.00 | 0.18 | 0.18 | 72 | 1011.6 |
| 20260505051059 | 17 | 288 | 1.6 | 3.2 | 0.00 | 0.18 | 0.18 | 72 | 1011.6 |
| 20260505050959 | 17 | 1 | 1.6 | 3.2 | 0.00 | 0.18 | 0.18 | 72 | 1011.6 |
| 20260505050859 | 17 | 321 | 1.6 | 3.2 | 0.00 | 0.18 | 0.18 | 72 | 1011.6 |
| 20260505050759 | 18 | 315 | 1.6 | 3.2 | 0.00 | 0.18 | 0.18 | 72 | 1011.6 |
| 20260505050702 | 18 | 280 | 1.6 | 3.2 | 0.00 | 0.18 | 0.18 | 72 | 1011.6 |
| 20260505050600 | 18 | 351 | 1.6 | 3.2 | 0.00 | 0.18 | 0.18 | 72 | 1011.6 |
| 20260505050459 | 18 | 344 | 1.6 | 3.2 | 0.00 | 0.18 | 0.18 | 72 | 1011.6 |
| 20260505050359 | 18 | 322 | 1.6 | 3.2 | 0.00 | 0.18 | 0.18 | 72 | 1011.6 |
| 20260505050300 | 18 | 28 | 1.6 | 3.2 | 0.00 | 0.18 | 0.18 | 72 | 1011.6 |
| 20260505050205 | 18 | 357 | 0.0 | 1.6 | 0.00 | 0.18 | 0.18 | 72 | 1011.6 |
| 20260505050124 | 18 | 85 | 0.0 | 1.6 | 0.00 | 0.18 | 0.18 | 72 | 1011.6 |
| 20260505041743 | 19 | 330 | 1.6 | 6.4 | 0.00 | 0.18 | 0.18 | 69 | 1011.1 |
| 20260505041642 | 20 | 319 | 1.6 | 6.4 | 0.00 | 0.18 | 0.18 | 70 | 1011.0 |
| 20260505041542 | 20 | 2 | 0.0 | 3.2 | 0.00 | 0.18 | 0.18 | 70 | 1011.0 |
| 20260505041442 | 20 | 323 | 0.0 | 3.2 | 0.00 | 0.18 | 0.18 | 70 | 1011.0 |
| 20260505041342 | 20 | 80 | 0.0 | 3.2 | 0.00 | 0.18 | 0.18 | 70 | 1011.0 |
| 20260505041243 | 20 | 321 | 0.0 | 3.2 | 0.00 | 0.18 | 0.18 | 70 | 1011.0 |
| 20260505041142 | 20 | 0 | 0.0 | 3.2 | 0.00 | 0.18 | 0.18 | 71 | 1010.9 |
| 20260505041041 | 20 | 189 | 0.0 | 3.2 | 0.00 | 0.18 | 0.18 | 70 | 1010.9 |
| 20260505040942 | 20 | 93 | 0.0 | 3.2 | 0.00 | 0.18 | 0.18 | 70 | 1010.9 |
| 20260505040842 | 20 | 355 | 0.0 | 3.2 | 0.00 | 0.18 | 0.18 | 70 | 1010.9 |
| 20260505040741 | 20 | 0 | 0.0 | 3.2 | 0.00 | 0.18 | 0.18 | 71 | 1010.9 |
| 20260505040639 | 20 | 89 | 0.0 | 3.2 | 0.00 | 0.18 | 0.18 | 71 | 1010.9 |
| 20260505040539 | 20 | 222 | 0.0 | 3.2 | 0.00 | 0.18 | 0.18 | 71 | 1010.9 |
| 20260505040440 | 20 | 0 | 0.0 | 3.2 | 0.00 | 0.18 | 0.18 | 70 | 1010.8 |
| 20260505040339 | 20 | 2 | 1.6 | 3.2 | 0.00 | 0.18 | 0.18 | 71 | 1010.8 |
| 20260505040240 | 20 | 333 | 1.6 | 3.2 | 0.00 | 0.18 | 0.18 | 71 | 1010.8 |
| 20260505040139 | 20 | 0 | 1.6 | 3.2 | 0.00 | 0.18 | 0.18 | 70 | 1010.8 |
| 20260505040040 | 20 | 319 | 0.0 | 3.2 | 0.00 | 0.18 | 0.18 | 70 | 1010.8 |
| 20260505035939 | 20 | 0 | 0.0 | 3.2 | 0.00 | 0.18 | 0.18 | 70 | 1010.8 |
| 20260505035840 | 20 | 285 | 0.0 | 3.2 | 0.00 | 0.18 | 0.18 | 70 | 1010.7 |
| 20260505035742 | 20 | 0 | 0.0 | 3.2 | 0.00 | 0.18 | 0.18 | 70 | 1010.7 |
| 20260505035639 | 20 | 259 | 0.0 | 3.2 | 0.00 | 0.18 | 0.18 | 71 | 1010.7 |
| 20260505035539 | 20 | 351 | 0.0 | 3.2 | 0.00 | 0.18 | 0.18 | 71 | 1010.7 |
| 20260505035440 | 20 | 198 | 0.0 | 3.2 | 0.00 | 0.18 | 0.18 | 71 | 1010.7 |
| 20260505035339 | 20 | 117 | 0.0 | 4.8 | 0.00 | 0.18 | 0.18 | 71 | 1010.6 |
| 20260505035239 | 20 | 220 | 0.0 | 4.8 | 0.00 | 0.18 | 0.18 | 71 | 1010.6 |
| 20260505035144 | 20 | 0 | 0.0 | 4.8 | 0.00 | 0.18 | 0.18 | 71 | 1010.6 |
| 20260505035039 | 20 | 0 | 0.0 | 4.8 | 0.00 | 0.18 | 0.18 | 71 | 1010.6 |
| 20260505034940 | 20 | 154 | 0.0 | 4.8 | 0.00 | 0.18 | 0.18 | 71 | 1010.6 |
| 20260505034840 | 20 | 273 | 0.0 | 4.8 | 0.00 | 0.18 | 0.18 | 71 | 1010.6 |
| 20260505034741 | 20 | 0 | 1.6 | 4.8 | 0.00 | 0.18 | 0.18 | 70 | 1010.5 |
| 20260505034639 | 20 | 0 | 1.6 | 4.8 | 0.00 | 0.18 | 0.18 | 71 | 1010.5 |
| 20260505034540 | 20 | 0 | 1.6 | 4.8 | 0.00 | 0.18 | 0.18 | 71 | 1010.5 |
| 20260505034440 | 20 | 0 | 1.6 | 4.8 | 0.00 | 0.18 | 0.18 | 70 | 1010.5 |
| 20260505034336 | 20 | 238 | 1.6 | 3.2 | 0.00 | 0.18 | 0.18 | 70 | 1010.4 |
| 20260505034238 | 20 | 155 | 1.6 | 3.2 | 0.00 | 0.18 | 0.18 | 70 | 1010.4 |
| 20260505034137 | 20 | 0 | 1.6 | 3.2 | 0.00 | 0.18 | 0.18 | 70 | 1010.4 |
| 20260505034034 | 20 | 147 | 1.6 | 3.2 | 0.00 | 0.18 | 0.18 | 70 | 1010.3 |
| 20260505033934 | 20 | 246 | 1.6 | 3.2 | 0.00 | 0.18 | 0.18 | 70 | 1010.3 |
| 20260505033833 | 20 | 313 | 1.6 | 3.2 | 0.00 | 0.18 | 0.18 | 70 | 1010.3 |
| 20260505033734 | 20 | 43 | 1.6 | 6.4 | 0.00 | 0.18 | 0.18 | 70 | 1010.3 |
| 20260505033634 | 20 | 326 | 1.6 | 6.4 | 0.00 | 0.18 | 0.18 | 70 | 1010.3 |
| 20260505033533 | 20 | 209 | 1.6 | 6.4 | 0.00 | 0.18 | 0.18 | 71 | 1010.2 |
| 20260505033434 | 20 | 0 | 1.6 | 6.4 | 0.00 | 0.18 | 0.18 | 70 | 1010.2 |
| 20260505033333 | 20 | 255 | 1.6 | 6.4 | 0.00 | 0.18 | 0.18 | 70 | 1010.2 |
| 20260505033231 | 20 | 240 | 1.6 | 6.4 | 0.00 | 0.18 | 0.18 | 70 | 1010.2 |
| 20260505033129 | 20 | 245 | 1.6 | 6.4 | 0.00 | 0.18 | 0.18 | 70 | 1010.2 |
| 20260505033119 | 20 | 286 | 1.6 | 6.4 | 0.00 | 0.18 | 0.18 | 70 | 1010.2 |
| 20260505032926 | 20 | 243 | 1.6 | 6.4 | 0.00 | 0.18 | 0.18 | 70 | 1010.2 |
| 20260505032826 | 20 | 278 | 1.6 | 6.4 | 0.00 | 0.18 | 0.18 | 70 | 1010.2 |
| 20260505032726 | 20 | 207 | 1.6 | 4.8 | 0.00 | 0.18 | 0.18 | 70 | 1010.1 |
| 20260505032627 | 20 | 191 | 1.6 | 4.8 | 0.00 | 0.18 | 0.18 | 70 | 1010.1 |
| 20260505032617 | 21 | 290 | 1.6 | 4.8 | 0.00 | 0.18 | 0.18 | 70 | 1010.1 |
| 20260505032421 | 21 | 126 | 1.6 | 4.8 | 0.00 | 0.18 | 0.18 | 70 | 1010.1 |
| 20260505032320 | 21 | 198 | 1.6 | 4.8 | 0.00 | 0.18 | 0.18 | 70 | 1010.1 |
| 20260505032221 | 21 | 182 | 1.6 | 4.8 | 0.00 | 0.18 | 0.18 | 70 | 1010.0 |
| 20260505032120 | 21 | 172 | 1.6 | 4.8 | 0.00 | 0.18 | 0.18 | 70 | 1010.0 |
| 20260505032020 | 21 | 0 | 1.6 | 4.8 | 0.00 | 0.18 | 0.18 | 70 | 1010.0 |
| 20260505031920 | 21 | 229 | 1.6 | 4.8 | 0.00 | 0.18 | 0.18 | 70 | 1010.0 |
| 20260505031820 | 21 | 197 | 1.6 | 4.8 | 0.00 | 0.18 | 0.18 | 70 | 1010.0 |
| 20260505031720 | 21 | 212 | 1.6 | 4.8 | 0.00 | 0.18 | 0.18 | 70 | 1010.0 |
| 20260505031629 | 21 | 206 | 1.6 | 4.8 | 0.00 | 0.18 | 0.18 | 69 | 1010.0 |
| 20260505031621 | 21 | 293 | 0.0 | 4.8 | 0.00 | 0.18 | 0.18 | 69 | 1010.0 |
| 20260505031420 | 21 | 253 | 0.0 | 4.8 | 0.00 | 0.18 | 0.18 | 69 | 1010.0 |
| 20260505031320 | 21 | 259 | 1.6 | 4.8 | 0.00 | 0.18 | 0.18 | 69 | 1010.0 |
| 20260505031220 | 21 | 0 | 1.6 | 4.8 | 0.00 | 0.18 | 0.18 | 69 | 1010.0 |
| 20260505031120 | 21 | 0 | 1.6 | 4.8 | 0.00 | 0.18 | 0.18 | 69 | 1009.9 |
| 20260505031020 | 21 | 0 | 1.6 | 4.8 | 0.00 | 0.18 | 0.18 | 69 | 1009.9 |
| 20260505030920 | 21 | 0 | 1.6 | 4.8 | 0.00 | 0.18 | 0.18 | 69 | 1009.9 |
| 20260505030822 | 21 | 196 | 1.6 | 4.8 | 0.00 | 0.18 | 0.18 | 69 | 1009.9 |
| 20260505030721 | 21 | 216 | 1.6 | 3.2 | 0.00 | 0.18 | 0.18 | 69 | 1009.9 |
| 20260505030621 | 21 | 241 | 1.6 | 4.8 | 0.00 | 0.18 | 0.18 | 69 | 1009.9 |
| 20260505030520 | 21 | 191 | 1.6 | 4.8 | 0.00 | 0.18 | 0.18 | 69 | 1009.9 |
| 20260505030421 | 21 | 0 | 1.6 | 4.8 | 0.00 | 0.18 | 0.18 | 69 | 1009.9 |
| 20260505030320 | 21 | 216 | 1.6 | 4.8 | 0.00 | 0.18 | 0.18 | 68 | 1009.9 |
| 20260505030221 | 21 | 217 | 0.0 | 4.8 | 0.00 | 0.18 | 0.18 | 68 | 1009.9 |
| 20260505030120 | 21 | 133 | 0.0 | 4.8 | 0.00 | 0.18 | 0.18 | 68 | 1009.9 |
| 20260505030021 | 21 | 0 | 1.6 | 4.8 | 0.00 | 0.18 | 0.18 | 68 | 1009.9 |
| 20260505025922 | 21 | 190 | 1.6 | 4.8 | 0.00 | 0.18 | 0.18 | 68 | 1009.9 |
| 20260505025821 | 21 | 298 | 0.0 | 4.8 | 0.00 | 0.18 | 0.18 | 68 | 1009.9 |
| 20260505025720 | 21 | 294 | 0.0 | 4.8 | 0.00 | 0.18 | 0.18 | 68 | 1009.8 |
| 20260505025621 | 21 | 157 | 0.0 | 4.8 | 0.00 | 0.18 | 0.18 | 68 | 1009.8 |
| 20260505025521 | 21 | 295 | 1.6 | 6.4 | 0.00 | 0.18 | 0.18 | 68 | 1009.8 |
| 20260505025421 | 21 | 0 | 1.6 | 6.4 | 0.00 | 0.18 | 0.18 | 68 | 1009.8 |
| 20260505025320 | 21 | 184 | 1.6 | 6.4 | 0.00 | 0.18 | 0.18 | 68 | 1009.8 |
| 20260505025221 | 21 | 229 | 1.6 | 6.4 | 0.00 | 0.18 | 0.18 | 68 | 1009.8 |
| 20260505025121 | 21 | 190 | 1.6 | 6.4 | 0.00 | 0.18 | 0.18 | 68 | 1009.8 |
| 20260505025020 | 21 | 274 | 1.6 | 6.4 | 0.00 | 0.18 | 0.18 | 68 | 1009.8 |
| 20260505024920 | 21 | 291 | 1.6 | 6.4 | 0.00 | 0.18 | 0.18 | 68 | 1009.8 |
| 20260505024821 | 21 | 0 | 1.6 | 6.4 | 0.00 | 0.18 | 0.18 | 67 | 1009.7 |
| 20260505024721 | 21 | 171 | 1.6 | 6.4 | 0.00 | 0.18 | 0.18 | 67 | 1009.7 |
| 20260505024625 | 21 | 267 | 1.6 | 6.4 | 0.00 | 0.18 | 0.18 | 67 | 1009.7 |
| 20260505024616 | 21 | 169 | 1.6 | 6.4 | 0.00 | 0.18 | 0.18 | 67 | 1009.7 |
| 20260505024417 | 21 | 263 | 1.6 | 6.4 | 0.00 | 0.18 | 0.18 | 67 | 1009.7 |
| 20260505024317 | 21 | 267 | 1.6 | 6.4 | 0.00 | 0.18 | 0.18 | 67 | 1009.7 |
| 20260505024217 | 21 | 173 | 1.6 | 6.4 | 0.00 | 0.18 | 0.18 | 67 | 1009.7 |
| 20260505024116 | 21 | 272 | 1.6 | 6.4 | 0.00 | 0.18 | 0.18 | 67 | 1009.7 |
| 20260505024017 | 21 | 213 | 1.6 | 6.4 | 0.00 | 0.18 | 0.18 | 67 | 1009.7 |
| 20260505023915 | 21 | 206 | 1.6 | 6.4 | 0.00 | 0.18 | 0.18 | 67 | 1009.7 |
| 20260505023814 | 21 | 183 | 1.6 | 6.4 | 0.00 | 0.18 | 0.18 | 67 | 1009.7 |
| 20260505023714 | 21 | 281 | 1.6 | 6.4 | 0.00 | 0.18 | 0.18 | 67 | 1009.7 |
| 20260505023610 | 21 | 253 | 1.6 | 6.4 | 0.00 | 0.18 | 0.18 | 67 | 1009.7 |
| 20260505023515 | 21 | 191 | 1.6 | 6.4 | 0.00 | 0.18 | 0.18 | 67 | 1009.7 |
| 20260505023411 | 21 | 254 | 1.6 | 4.8 | 0.00 | 0.18 | 0.18 | 67 | 1009.7 |
| 20260505023312 | 21 | 193 | 1.6 | 6.4 | 0.00 | 0.18 | 0.18 | 67 | 1009.7 |
| 20260505023210 | 21 | 269 | 1.6 | 6.4 | 0.00 | 0.18 | 0.18 | 67 | 1009.7 |
| 20260505023111 | 21 | 0 | 1.6 | 6.4 | 0.00 | 0.18 | 0.18 | 66 | 1009.7 |
| 20260505023015 | 21 | 236 | 1.6 | 6.4 | 0.00 | 0.18 | 0.18 | 67 | 1009.7 |
| 20260505022908 | 21 | 186 | 1.6 | 6.4 | 0.00 | 0.18 | 0.18 | 66 | 1009.7 |
| 20260505022808 | 21 | 175 | 1.6 | 6.4 | 0.00 | 0.18 | 0.18 | 66 | 1009.7 |
| 20260505022709 | 22 | 199 | 1.6 | 6.4 | 0.00 | 0.18 | 0.18 | 66 | 1009.7 |
| 20260505022609 | 22 | 208 | 1.6 | 6.4 | 0.00 | 0.18 | 0.18 | 66 | 1009.7 |
| 20260505022514 | 22 | 160 | 1.6 | 6.4 | 0.00 | 0.18 | 0.18 | 66 | 1009.7 |
| 20260505022408 | 22 | 258 | 1.6 | 6.4 | 0.00 | 0.18 | 0.18 | 66 | 1009.7 |
| 20260505022309 | 22 | 177 | 1.6 | 6.4 | 0.00 | 0.18 | 0.18 | 66 | 1009.7 |
| 20260505022208 | 22 | 246 | 1.6 | 6.4 | 0.00 | 0.18 | 0.18 | 66 | 1009.7 |
| 20260505022108 | 22 | 0 | 1.6 | 6.4 | 0.00 | 0.18 | 0.18 | 66 | 1009.7 |
| 20260505022014 | 22 | 194 | 1.6 | 6.4 | 0.00 | 0.18 | 0.18 | 66 | 1009.7 |
| 20260505021908 | 22 | 286 | 1.6 | 6.4 | 0.00 | 0.18 | 0.18 | 66 | 1009.7 |
| 20260505021808 | 22 | 222 | 1.6 | 6.4 | 0.00 | 0.18 | 0.18 | 65 | 1009.7 |
| 20260505021709 | 22 | 301 | 1.6 | 6.4 | 0.00 | 0.18 | 0.18 | 65 | 1009.7 |
| 20260505021624 | 22 | 302 | 1.6 | 6.4 | 0.00 | 0.18 | 0.18 | 65 | 1009.7 |
| 20260505021614 | 22 | 185 | 1.6 | 6.4 | 0.00 | 0.18 | 0.18 | 65 | 1009.7 |
| 20260505021408 | 22 | 199 | 1.6 | 8.0 | 0.00 | 0.18 | 0.18 | 65 | 1009.7 |
| 20260505021308 | 22 | 0 | 3.2 | 8.0 | 0.00 | 0.18 | 0.18 | 65 | 1009.7 |
| 20260505021209 | 22 | 190 | 3.2 | 8.0 | 0.00 | 0.18 | 0.18 | 65 | 1009.7 |
| 20260505021108 | 22 | 260 | 3.2 | 8.0 | 0.00 | 0.18 | 0.18 | 65 | 1009.7 |
| 20260505020909 | 22 | 270 | 1.6 | 8.0 | 0.00 | 0.18 | 0.18 | 65 | 1009.7 |
| 20260505020808 | 22 | 188 | 1.6 | 8.0 | 0.00 | 0.18 | 0.18 | 65 | 1009.7 |
| 20260505020709 | 22 | 190 | 1.6 | 8.0 | 0.00 | 0.18 | 0.18 | 65 | 1009.7 |
| 20260505020608 | 22 | 187 | 1.6 | 8.0 | 0.00 | 0.18 | 0.18 | 65 | 1009.7 |
| 20260505020514 | 22 | 231 | 1.6 | 8.0 | 0.00 | 0.18 | 0.18 | 64 | 1009.7 |
| 20260505020408 | 22 | 191 | 1.6 | 8.0 | 0.00 | 0.18 | 0.18 | 65 | 1009.7 |
| 20260505020308 | 22 | 162 | 1.6 | 4.8 | 0.00 | 0.18 | 0.18 | 65 | 1009.7 |
| 20260505020208 | 22 | 208 | 1.6 | 4.8 | 0.00 | 0.18 | 0.18 | 64 | 1009.7 |
| 20260505020108 | 22 | 253 | 1.6 | 4.8 | 0.00 | 0.18 | 0.18 | 64 | 1009.7 |
| 20260505020014 | 22 | 273 | 1.6 | 4.8 | 0.00 | 0.18 | 0.18 | 64 | 1009.7 |
| 20260505015908 | 22 | 297 | 1.6 | 4.8 | 0.00 | 0.18 | 0.18 | 64 | 1009.7 |
| 20260505015808 | 22 | 140 | 1.6 | 4.8 | 0.00 | 0.18 | 0.18 | 64 | 1009.7 |
| 20260505015708 | 22 | 0 | 1.6 | 4.8 | 0.00 | 0.18 | 0.18 | 64 | 1009.7 |
| 20260505015609 | 22 | 218 | 1.6 | 4.8 | 0.00 | 0.18 | 0.18 | 64 | 1009.7 |
| 20260505015408 | 22 | 299 | 1.6 | 4.8 | 0.00 | 0.18 | 0.18 | 64 | 1009.7 |
| 20260505015308 | 22 | 211 | 1.6 | 4.8 | 0.00 | 0.18 | 0.18 | 64 | 1009.7 |
| 20260505015209 | 22 | 187 | 1.6 | 4.8 | 0.00 | 0.18 | 0.18 | 64 | 1009.7 |
| 20260505015106 | 22 | 182 | 1.6 | 4.8 | 0.00 | 0.18 | 0.18 | 64 | 1009.7 |
| 20260505015012 | 22 | 192 | 1.6 | 4.8 | 0.00 | 0.18 | 0.18 | 64 | 1009.7 |
| 20260505014904 | 22 | 181 | 1.6 | 4.8 | 0.00 | 0.18 | 0.18 | 64 | 1009.7 |
| 20260505014804 | 22 | 30 | 1.6 | 4.8 | 0.00 | 0.18 | 0.18 | 63 | 1009.7 |
| 20260505014704 | 22 | 0 | 1.6 | 4.8 | 0.00 | 0.18 | 0.18 | 63 | 1009.7 |
| 20260505014603 | 22 | 282 | 1.6 | 4.8 | 0.00 | 0.18 | 0.18 | 63 | 1009.7 |
| 20260505014459 | 22 | 249 | 1.6 | 4.8 | 0.00 | 0.18 | 0.18 | 63 | 1009.7 |
| 20260505014400 | 22 | 281 | 1.6 | 4.8 | 0.00 | 0.18 | 0.18 | 63 | 1009.7 |
| 20260505014257 | 22 | 192 | 1.6 | 6.4 | 0.00 | 0.18 | 0.18 | 63 | 1009.7 |
| 20260505014157 | 22 | 244 | 1.6 | 6.4 | 0.00 | 0.18 | 0.18 | 63 | 1009.7 |
| 20260505014057 | 22 | 152 | 1.6 | 6.4 | 0.00 | 0.18 | 0.18 | 63 | 1009.7 |
| 20260505013954 | 22 | 44 | 1.6 | 6.4 | 0.00 | 0.18 | 0.18 | 63 | 1009.7 |
| 20260505013854 | 22 | 183 | 1.6 | 6.4 | 0.00 | 0.18 | 0.18 | 62 | 1009.8 |
| 20260505013754 | 22 | 249 | 1.6 | 6.4 | 0.00 | 0.18 | 0.18 | 63 | 1009.8 |
| 20260505013654 | 23 | 207 | 1.6 | 6.4 | 0.00 | 0.18 | 0.18 | 63 | 1009.7 |
| 20260505013550 | 23 | 16 | 1.6 | 6.4 | 0.00 | 0.18 | 0.18 | 62 | 1009.8 |
| 20260505013451 | 23 | 272 | 1.6 | 6.4 | 0.00 | 0.18 | 0.18 | 62 | 1009.8 |
| 20260505013351 | 23 | 260 | 1.6 | 6.4 | 0.00 | 0.18 | 0.18 | 62 | 1009.8 |
| 20260505013251 | 23 | 219 | 1.6 | 6.4 | 0.00 | 0.18 | 0.18 | 61 | 1009.8 |
| 20260505013151 | 23 | 274 | 1.6 | 6.4 | 0.00 | 0.18 | 0.18 | 61 | 1009.8 |
| 20260505013050 | 23 | 118 | 1.6 | 6.4 | 0.00 | 0.18 | 0.18 | 61 | 1009.9 |
| 20260505012951 | 23 | 0 | 1.6 | 6.4 | 0.00 | 0.18 | 0.18 | 62 | 1009.8 |
| 20260505012851 | 23 | 224 | 1.6 | 6.4 | 0.00 | 0.18 | 0.18 | 61 | 1009.8 |
| 20260505012748 | 23 | 283 | 1.6 | 6.4 | 0.00 | 0.18 | 0.18 | 61 | 1009.8 |
| 20260505012650 | 23 | 191 | 1.6 | 6.4 | 0.00 | 0.18 | 0.18 | 61 | 1009.8 |
| 20260505012548 | 23 | 258 | 1.6 | 6.4 | 0.00 | 0.18 | 0.18 | 60 | 1009.9 |
| 20260505012448 | 23 | 339 | 1.6 | 6.4 | 0.00 | 0.18 | 0.18 | 60 | 1009.9 |
| 20260505012348 | 23 | 181 | 1.6 | 6.4 | 0.00 | 0.18 | 0.18 | 60 | 1009.9 |
| 20260505012249 | 23 | 67 | 1.6 | 6.4 | 0.00 | 0.18 | 0.18 | 60 | 1009.9 |
| 20260505012149 | 23 | 316 | 1.6 | 6.4 | 0.00 | 0.18 | 0.18 | 60 | 1009.9 |
| 20260505012047 | 23 | 216 | 1.6 | 6.4 | 0.03 | 0.18 | 0.18 | 59 | 1009.9 |
| 20260505011948 | 23 | 205 | 1.6 | 6.4 | 0.05 | 0.18 | 0.18 | 60 | 1009.9 |
| 20260505011847 | 23 | 233 | 1.6 | 6.4 | 0.10 | 0.18 | 0.18 | 60 | 1009.9 |
| 20260505011746 | 23 | 0 | 1.6 | 6.4 | 0.10 | 0.18 | 0.18 | 60 | 1009.9 |
| 20260505011651 | 23 | 185 | 1.6 | 6.4 | 0.13 | 0.18 | 0.18 | 59 | 1009.9 |
| 20260505011546 | 24 | 230 | 1.6 | 6.4 | 0.13 | 0.18 | 0.18 | 59 | 1009.9 |
| 20260505011447 | 24 | 190 | 1.6 | 6.4 | 0.13 | 0.18 | 0.18 | 58 | 1010.0 |
| 20260505011347 | 24 | 0 | 1.6 | 4.8 | 0.13 | 0.18 | 0.18 | 58 | 1010.0 |
| 20260505011247 | 24 | 269 | 1.6 | 4.8 | 0.13 | 0.18 | 0.18 | 58 | 1010.0 |
| 20260505011149 | 24 | 239 | 1.6 | 4.8 | 0.15 | 0.18 | 0.18 | 57 | 1010.0 |
| 20260505011046 | 24 | 211 | 1.6 | 4.8 | 0.18 | 0.18 | 0.18 | 57 | 1010.0 |
| 20260505010946 | 24 | 236 | 1.6 | 4.8 | 0.18 | 0.18 | 0.18 | 58 | 1010.0 |
| 20260505010847 | 24 | 184 | 1.6 | 4.8 | 0.18 | 0.18 | 0.18 | 58 | 1010.0 |
| 20260505010747 | 23 | 242 | 1.6 | 4.8 | 0.18 | 0.18 | 0.18 | 58 | 1010.0 |
| 20260505010648 | 23 | 257 | 1.6 | 6.4 | 0.18 | 0.18 | 0.18 | 58 | 1010.0 |
| 20260505010546 | 23 | 355 | 1.6 | 6.4 | 0.18 | 0.18 | 0.18 | 58 | 1010.0 |
| 20260505010447 | 23 | 225 | 1.6 | 6.4 | 0.18 | 0.18 | 0.18 | 58 | 1009.9 |
| 20260505010346 | 23 | 351 | 1.6 | 6.4 | 0.18 | 0.18 | 0.18 | 59 | 1010.0 |
| 20260505010247 | 23 | 64 | 1.6 | 6.4 | 0.18 | 0.18 | 0.18 | 59 | 1010.0 |
| 20260505010149 | 24 | 218 | 1.6 | 6.4 | 0.18 | 0.18 | 0.18 | 58 | 1010.0 |
| 20260505010046 | 24 | 202 | 1.6 | 6.4 | 0.18 | 0.18 | 0.18 | 58 | 1009.9 |
| 20260505005946 | 24 | 209 | 1.6 | 6.4 | 0.18 | 0.18 | 0.18 | 58 | 1010.0 |
| 20260505005846 | 24 | 215 | 1.6 | 6.4 | 0.18 | 0.18 | 0.18 | 58 | 1009.9 |
| 20260505005746 | 24 | 274 | 1.6 | 6.4 | 0.18 | 0.18 | 0.18 | 57 | 1010.0 |
| 20260505005646 | 24 | 222 | 1.6 | 8.0 | 0.18 | 0.18 | 0.18 | 57 | 1010.0 |
| 20260505005542 | 24 | 254 | 1.6 | 8.0 | 0.18 | 0.18 | 0.18 | 57 | 1010.0 |
| 20260505005443 | 24 | 11 | 1.6 | 8.0 | 0.18 | 0.18 | 0.18 | 57 | 1010.0 |
| 20260505005342 | 24 | 0 | 1.6 | 8.0 | 0.18 | 0.18 | 0.18 | 57 | 1010.0 |
| 20260505005239 | 23 | 322 | 1.6 | 8.0 | 0.18 | 0.18 | 0.18 | 58 | 1010.1 |
| 20260505005143 | 23 | 35 | 1.6 | 8.0 | 0.18 | 0.18 | 0.18 | 58 | 1010.0 |
| 20260505005039 | 23 | 249 | 1.6 | 8.0 | 0.18 | 0.18 | 0.18 | 58 | 1010.1 |
| 20260505004940 | 23 | 258 | 1.6 | 8.0 | 0.18 | 0.18 | 0.18 | 58 | 1010.1 |
| 20260505004839 | 23 | 0 | 1.6 | 8.0 | 0.18 | 0.18 | 0.18 | 58 | 1010.1 |
| 20260505004740 | 23 | 275 | 1.6 | 8.0 | 0.18 | 0.18 | 0.18 | 58 | 1010.1 |
| 20260505004636 | 23 | 263 | 1.6 | 6.4 | 0.18 | 0.18 | 0.18 | 58 | 1010.1 |
| 20260505004610 | 23 | 270 | 1.6 | 9.7 | 0.18 | 0.18 | 0.18 | 58 | 1010.1 |
| 20260505004433 | 23 | 206 | 1.6 | 9.7 | 0.18 | 0.18 | 0.18 | 58 | 1010.2 |
| 20260505004331 | 23 | 264 | 1.6 | 9.7 | 0.18 | 0.18 | 0.18 | 58 | 1010.1 |
| 20260505004231 | 23 | 6 | 1.6 | 9.7 | 0.18 | 0.18 | 0.18 | 58 | 1010.1 |
| 20260505004131 | 23 | 250 | 1.6 | 9.7 | 0.18 | 0.18 | 0.18 | 59 | 1010.1 |
| 20260505004031 | 23 | 224 | 1.6 | 9.7 | 0.18 | 0.18 | 0.18 | 59 | 1010.1 |
| 20260505003931 | 23 | 271 | 1.6 | 9.7 | 0.18 | 0.18 | 0.18 | 59 | 1010.1 |
| 20260505003830 | 23 | 279 | 3.2 | 9.7 | 0.18 | 0.18 | 0.18 | 59 | 1010.1 |
| 20260505003728 | 23 | 226 | 3.2 | 9.7 | 0.18 | 0.18 | 0.18 | 58 | 1010.1 |
| 20260505003626 | 23 | 260 | 3.2 | 9.7 | 0.18 | 0.18 | 0.18 | 58 | 1010.2 |
| 20260505003526 | 23 | 60 | 3.2 | 9.7 | 0.18 | 0.18 | 0.18 | 58 | 1010.2 |
| 20260505003427 | 23 | 194 | 3.2 | 9.7 | 0.18 | 0.18 | 0.18 | 59 | 1010.2 |
| 20260505003341 | 23 | 321 | 3.2 | 9.7 | 0.18 | 0.18 | 0.18 | 59 | 1010.1 |
| 20260505003332 | 23 | 16 | 3.2 | 9.7 | 0.18 | 0.18 | 0.18 | 59 | 1010.2 |
| 20260505003126 | 23 | 229 | 3.2 | 11.3 | 0.18 | 0.18 | 0.18 | 59 | 1010.2 |
| 20260505003107 | 23 | 211 | 3.2 | 11.3 | 0.18 | 0.18 | 0.18 | 59 | 1010.1 |
| 20260505002927 | 23 | 181 | 3.2 | 11.3 | 0.18 | 0.18 | 0.18 | 59 | 1010.1 |
| 20260505002827 | 23 | 241 | 3.2 | 11.3 | 0.18 | 0.18 | 0.18 | 59 | 1010.1 |
| 20260505002726 | 23 | 229 | 3.2 | 11.3 | 0.18 | 0.18 | 0.18 | 59 | 1010.2 |
| 20260505002627 | 23 | 248 | 3.2 | 11.3 | 0.18 | 0.18 | 0.18 | 59 | 1010.2 |
| 20260505002526 | 23 | 229 | 3.2 | 11.3 | 0.18 | 0.18 | 0.18 | 59 | 1010.2 |
| 20260505002427 | 23 | 260 | 3.2 | 11.3 | 0.18 | 0.18 | 0.18 | 59 | 1010.2 |
| 20260505002326 | 23 | 232 | 3.2 | 11.3 | 0.18 | 0.18 | 0.18 | 59 | 1010.2 |
| 20260505002226 | 23 | 194 | 3.2 | 11.3 | 0.18 | 0.18 | 0.18 | 59 | 1010.2 |
| 20260505002126 | 23 | 250 | 3.2 | 6.4 | 0.18 | 0.18 | 0.18 | 58 | 1010.2 |
| 20260505002026 | 23 | 2 | 1.6 | 6.4 | 0.15 | 0.15 | 0.18 | 58 | 1010.2 |
| 20260505001926 | 23 | 179 | 3.2 | 6.4 | 0.13 | 0.13 | 0.15 | 58 | 1010.2 |
| 20260505001827 | 23 | 48 | 3.2 | 6.4 | 0.10 | 0.10 | 0.10 | 59 | 1010.2 |
| 20260505001726 | 23 | 279 | 3.2 | 6.4 | 0.08 | 0.08 | 0.08 | 58 | 1010.1 |
| 20260505001627 | 23 | 235 | 1.6 | 6.4 | 0.05 | 0.05 | 0.05 | 59 | 1010.2 |
| 20260505001526 | 23 | 185 | 3.2 | 6.4 | 0.05 | 0.05 | 0.05 | 59 | 1010.2 |
| 20260505001426 | 23 | 264 | 3.2 | 6.4 | 0.05 | 0.05 | 0.05 | 59 | 1010.1 |
| 20260505001326 | 23 | 216 | 3.2 | 6.4 | 0.05 | 0.05 | 0.05 | 59 | 1010.2 |
| 20260505001227 | 23 | 33 | 3.2 | 6.4 | 0.05 | 0.05 | 0.05 | 59 | 1010.1 |
| 20260505001127 | 23 | 0 | 1.6 | 6.4 | 0.03 | 0.03 | 0.03 | 59 | 1010.2 |
| 20260505001026 | 23 | 282 | 1.6 | 6.4 | 0.00 | 0.00 | 0.00 | 59 | 1010.2 |
| 20260505000926 | 23 | 211 | 1.6 | 6.4 | 0.00 | 0.00 | 0.00 | 59 | 1010.1 |
| 20260505000827 | 23 | 270 | 1.6 | 6.4 | 0.00 | 0.00 | 0.00 | 59 | 1010.1 |
| 20260505000727 | 23 | 184 | 1.6 | 11.3 | 0.00 | 0.00 | 0.00 | 59 | 1010.2 |
| 20260505000626 | 23 | 197 | 3.2 | 11.3 | 0.00 | 0.00 | 0.00 | 59 | 1010.2 |
| 20260505000526 | 23 | 182 | 1.6 | 11.3 | 0.00 | 0.00 | 0.00 | 59 | 1010.2 |
| 20260505000428 | 23 | 330 | 1.6 | 11.3 | 0.00 | 0.00 | 0.00 | 59 | 1010.2 |
| 20260505000327 | 23 | 173 | 3.2 | 11.3 | 0.00 | 0.00 | 0.00 | 59 | 1010.3 |
| 20260505000227 | 23 | 201 | 3.2 | 11.3 | 0.00 | 0.00 | 0.00 | 59 | 1010.3 |
| 20260505000127 | 23 | 358 | 3.2 | 11.3 | 0.00 | 0.00 | 0.00 | 58 | 1010.3 |
| 20260505000026 | 23 | 30 | 3.2 | 11.3 | 0.00 | 0.00 | 0.00 | 58 | 1010.3 |
| 20260504235927 | 23 | 174 | 3.2 | 11.3 | 0.00 | 0.00 | 0.00 | 59 | 1010.4 |
| 20260504235827 | 23 | 292 | 3.2 | 11.3 | 0.00 | 0.00 | 0.00 | 59 | 1010.3 |
| 20260504235726 | 23 | 180 | 3.2 | 8.0 | 0.00 | 0.00 | 0.00 | 58 | 1010.4 |
| 20260504235626 | 23 | 287 | 1.6 | 8.0 | 0.00 | 0.00 | 0.00 | 58 | 1010.4 |
| 20260504235526 | 23 | 56 | 1.6 | 8.0 | 0.00 | 0.00 | 0.00 | 57 | 1010.4 |
| 20260504235426 | 23 | 193 | 1.6 | 8.0 | 0.00 | 0.00 | 0.00 | 57 | 1010.4 |
| 20260504235327 | 23 | 269 | 1.6 | 6.4 | 0.00 | 0.00 | 0.00 | 57 | 1010.4 |
| 20260504235227 | 23 | 238 | 1.6 | 6.4 | 0.00 | 0.00 | 0.00 | 58 | 1010.4 |
| 20260504235126 | 23 | 196 | 1.6 | 6.4 | 0.00 | 0.00 | 0.00 | 57 | 1010.3 |
| 20260504235023 | 23 | 125 | 1.6 | 6.4 | 0.00 | 0.00 | 0.00 | 57 | 1010.3 |
| 20260504234923 | 23 | 251 | 1.6 | 6.4 | 0.00 | 0.00 | 0.00 | 57 | 1010.3 |
| 20260504234823 | 23 | 216 | 1.6 | 6.4 | 0.00 | 0.00 | 0.00 | 57 | 1010.3 |
| 20260504234722 | 23 | 192 | 1.6 | 6.4 | 0.00 | 0.00 | 0.00 | 56 | 1010.3 |
| 20260504234619 | 23 | 60 | 1.6 | 6.4 | 0.00 | 0.00 | 0.00 | 57 | 1010.3 |
| 20260504234520 | 23 | 301 | 1.6 | 6.4 | 0.00 | 0.00 | 0.00 | 57 | 1010.3 |
| 20260504234419 | 23 | 226 | 1.6 | 6.4 | 0.00 | 0.00 | 0.00 | 58 | 1010.3 |
| 20260504234319 | 23 | 215 | 3.2 | 6.4 | 0.00 | 0.00 | 0.00 | 58 | 1010.3 |
| 20260504234220 | 23 | 140 | 3.2 | 6.4 | 0.00 | 0.00 | 0.00 | 58 | 1010.2 |
| 20260504234120 | 23 | 33 | 3.2 | 6.4 | 0.00 | 0.00 | 0.00 | 58 | 1010.3 |
| 20260504234020 | 23 | 338 | 3.2 | 6.4 | 0.00 | 0.00 | 0.00 | 58 | 1010.3 |
| 20260504233920 | 23 | 185 | 3.2 | 8.0 | 0.00 | 0.00 | 0.00 | 58 | 1010.3 |
| 20260504233820 | 23 | 267 | 3.2 | 8.0 | 0.00 | 0.00 | 0.00 | 58 | 1010.3 |
| 20260504233720 | 23 | 344 | 3.2 | 9.7 | 0.00 | 0.00 | 0.00 | 58 | 1010.3 |
| 20260504233620 | 23 | 190 | 3.2 | 9.7 | 0.00 | 0.00 | 0.00 | 58 | 1010.3 |
| 20260504233520 | 23 | 325 | 3.2 | 9.7 | 0.00 | 0.00 | 0.00 | 58 | 1010.3 |
| 20260504233421 | 23 | 246 | 3.2 | 9.7 | 0.00 | 0.00 | 0.00 | 58 | 1010.3 |
| 20260504233320 | 23 | 176 | 3.2 | 9.7 | 0.00 | 0.00 | 0.00 | 58 | 1010.3 |
| 20260504233218 | 23 | 218 | 3.2 | 9.7 | 0.00 | 0.00 | 0.00 | 58 | 1010.4 |
| 20260504233117 | 23 | 262 | 3.2 | 9.7 | 0.00 | 0.00 | 0.00 | 58 | 1010.4 |
| 20260504233018 | 23 | 63 | 3.2 | 9.7 | 0.00 | 0.00 | 0.00 | 58 | 1010.4 |
| 20260504232916 | 23 | 254 | 3.2 | 9.7 | 0.00 | 0.00 | 0.00 | 58 | 1010.4 |
| 20260504232817 | 23 | 182 | 3.2 | 9.7 | 0.00 | 0.00 | 0.00 | 58 | 1010.4 |
| 20260504232716 | 23 | 147 | 3.2 | 9.7 | 0.00 | 0.00 | 0.00 | 57 | 1010.4 |
| 20260504232618 | 23 | 196 | 3.2 | 9.7 | 0.00 | 0.00 | 0.00 | 58 | 1010.4 |
| 20260504232517 | 23 | 190 | 3.2 | 8.0 | 0.00 | 0.00 | 0.00 | 58 | 1010.4 |
| 20260504232416 | 23 | 9 | 1.6 | 8.0 | 0.00 | 0.00 | 0.00 | 58 | 1010.4 |
| 20260504232317 | 23 | 253 | 3.2 | 8.0 | 0.00 | 0.00 | 0.00 | 58 | 1010.4 |
| 20260504232217 | 23 | 319 | 3.2 | 8.0 | 0.00 | 0.00 | 0.00 | 58 | 1010.4 |
| 20260504232117 | 23 | 299 | 3.2 | 8.0 | 0.00 | 0.00 | 0.00 | 58 | 1010.4 |
| 20260504232106 | 23 | 162 | 3.2 | 8.0 | 0.00 | 0.00 | 0.00 | 58 | 1010.4 |
| 20260504231918 | 23 | 219 | 3.2 | 8.0 | 0.00 | 0.00 | 0.00 | 58 | 1010.4 |
| 20260504231818 | 23 | 248 | 3.2 | 8.0 | 0.00 | 0.00 | 0.00 | 57 | 1010.4 |
| 20260504231717 | 23 | 239 | 3.2 | 8.0 | 0.00 | 0.00 | 0.00 | 57 | 1010.4 |
| 20260504231617 | 23 | 207 | 3.2 | 8.0 | 0.00 | 0.00 | 0.00 | 58 | 1010.5 |
| 20260504231518 | 23 | 181 | 1.6 | 6.4 | 0.00 | 0.00 | 0.00 | 58 | 1010.5 |
| 20260504231418 | 23 | 203 | 1.6 | 6.4 | 0.00 | 0.00 | 0.00 | 57 | 1010.5 |
| 20260504231317 | 23 | 213 | 1.6 | 6.4 | 0.00 | 0.00 | 0.00 | 57 | 1010.5 |
| 20260504231217 | 23 | 246 | 1.6 | 6.4 | 0.00 | 0.00 | 0.00 | 57 | 1010.5 |
| 20260504231117 | 23 | 272 | 1.6 | 6.4 | 0.00 | 0.00 | 0.00 | 57 | 1010.6 |
| 20260504231017 | 23 | 190 | 1.6 | 6.4 | 0.00 | 0.00 | 0.00 | 57 | 1010.5 |
| 20260504230917 | 23 | 144 | 1.6 | 6.4 | 0.00 | 0.00 | 0.00 | 57 | 1010.5 |
| 20260504230817 | 23 | 39 | 1.6 | 6.4 | 0.00 | 0.00 | 0.00 | 57 | 1010.6 |
| 20260504230718 | 23 | 30 | 1.6 | 9.7 | 0.00 | 0.00 | 0.00 | 57 | 1010.6 |
| 20260504230617 | 23 | 339 | 3.2 | 9.7 | 0.00 | 0.00 | 0.00 | 57 | 1010.6 |
| 20260504230517 | 23 | 0 | 3.2 | 9.7 | 0.00 | 0.00 | 0.00 | 57 | 1010.6 |
| 20260504230418 | 23 | 301 | 3.2 | 9.7 | 0.00 | 0.00 | 0.00 | 56 | 1010.6 |
| 20260504230317 | 23 | 253 | 3.2 | 9.7 | 0.00 | 0.00 | 0.00 | 58 | 1010.6 |
| 20260504230217 | 23 | 51 | 3.2 | 9.7 | 0.00 | 0.00 | 0.00 | 58 | 1010.6 |
| 20260504230117 | 23 | 183 | 3.2 | 9.7 | 0.00 | 0.00 | 0.00 | 57 | 1010.6 |
| 20260504230018 | 23 | 245 | 3.2 | 9.7 | 0.00 | 0.00 | 0.00 | 57 | 1010.6 |
| 20260504225917 | 23 | 204 | 3.2 | 9.7 | 0.00 | 0.00 | 0.00 | 57 | 1010.7 |
| 20260504225818 | 23 | 198 | 3.2 | 9.7 | 0.00 | 0.00 | 0.00 | 57 | 1010.7 |
| 20260504225718 | 23 | 255 | 3.2 | 9.7 | 0.00 | 0.00 | 0.00 | 56 | 1010.7 |
| 20260504225618 | 23 | 45 | 3.2 | 6.4 | 0.00 | 0.00 | 0.00 | 56 | 1010.7 |
| 20260504225518 | 23 | 165 | 3.2 | 6.4 | 0.00 | 0.00 | 0.00 | 56 | 1010.7 |
| 20260504225418 | 23 | 204 | 1.6 | 6.4 | 0.00 | 0.00 | 0.00 | 56 | 1010.7 |
| 20260504225318 | 23 | 262 | 1.6 | 6.4 | 0.00 | 0.00 | 0.00 | 56 | 1010.8 |
| 20260504225217 | 23 | 177 | 1.6 | 6.4 | 0.00 | 0.00 | 0.00 | 56 | 1010.8 |
| 20260504225118 | 23 | 284 | 1.6 | 6.4 | 0.00 | 0.00 | 0.00 | 55 | 1010.8 |
| 20260504225017 | 23 | 97 | 1.6 | 4.8 | 0.00 | 0.00 | 0.00 | 55 | 1010.8 |
| 20260504224917 | 23 | 259 | 1.6 | 4.8 | 0.00 | 0.00 | 0.00 | 56 | 1010.8 |
| 20260504224817 | 23 | 172 | 1.6 | 4.8 | 0.00 | 0.00 | 0.00 | 55 | 1010.8 |
| 20260504224718 | 23 | 200 | 1.6 | 4.8 | 0.00 | 0.00 | 0.00 | 55 | 1010.8 |
| 20260504224618 | 23 | 174 | 1.6 | 6.4 | 0.00 | 0.00 | 0.00 | 55 | 1010.8 |
| 20260504224517 | 23 | 339 | 1.6 | 6.4 | 0.00 | 0.00 | 0.00 | 56 | 1010.8 |
| 20260504224416 | 23 | 45 | 1.6 | 6.4 | 0.00 | 0.00 | 0.00 | 56 | 1010.8 |
| 20260504224317 | 23 | 308 | 1.6 | 6.4 | 0.00 | 0.00 | 0.00 | 55 | 1010.8 |
| 20260504224217 | 23 | 237 | 1.6 | 6.4 | 0.00 | 0.00 | 0.00 | 56 | 1010.8 |
| 20260504224117 | 23 | 182 | 1.6 | 6.4 | 0.00 | 0.00 | 0.00 | 55 | 1010.8 |
| 20260504224016 | 23 | 86 | 1.6 | 6.4 | 0.00 | 0.00 | 0.00 | 56 | 1010.9 |
| 20260504223916 | 23 | 204 | 1.6 | 6.4 | 0.00 | 0.00 | 0.00 | 56 | 1010.9 |
| 20260504223817 | 23 | 328 | 1.6 | 6.4 | 0.00 | 0.00 | 0.00 | 56 | 1010.8 |
| 20260504223716 | 23 | 344 | 1.6 | 6.4 | 0.00 | 0.00 | 0.00 | 56 | 1010.9 |
| 20260504223617 | 23 | 345 | 1.6 | 6.4 | 0.00 | 0.00 | 0.00 | 56 | 1010.9 |
| 20260504223517 | 23 | 313 | 1.6 | 4.8 | 0.00 | 0.00 | 0.00 | 56 | 1010.9 |
| 20260504223414 | 22 | 0 | 1.6 | 4.8 | 0.00 | 0.00 | 0.00 | 57 | 1010.9 |
| 20260504223311 | 22 | 227 | 1.6 | 4.8 | 0.00 | 0.00 | 0.00 | 57 | 1010.9 |
| 20260504223212 | 22 | 198 | 1.6 | 8.0 | 0.00 | 0.00 | 0.00 | 57 | 1010.9 |
| 20260504223112 | 22 | 14 | 1.6 | 8.0 | 0.00 | 0.00 | 0.00 | 57 | 1011.0 |
| 20260504223012 | 22 | 182 | 3.2 | 8.0 | 0.00 | 0.00 | 0.00 | 56 | 1011.0 |
| 20260504222912 | 22 | 272 | 1.6 | 8.0 | 0.00 | 0.00 | 0.00 | 56 | 1011.0 |
| 20260504222812 | 22 | 233 | 3.2 | 8.0 | 0.00 | 0.00 | 0.00 | 56 | 1011.0 |
| 20260504222712 | 22 | 14 | 3.2 | 8.0 | 0.00 | 0.00 | 0.00 | 55 | 1011.0 |
| 20260504222612 | 22 | 56 | 3.2 | 8.0 | 0.00 | 0.00 | 0.00 | 56 | 1011.1 |
| 20260504222513 | 22 | 186 | 3.2 | 8.0 | 0.00 | 0.00 | 0.00 | 55 | 1011.1 |
| 20260504222412 | 22 | 26 | 3.2 | 8.0 | 0.00 | 0.00 | 0.00 | 56 | 1011.2 |
| 20260504222312 | 23 | 217 | 3.2 | 8.0 | 0.00 | 0.00 | 0.00 | 56 | 1011.2 |
| 20260504222212 | 23 | 179 | 3.2 | 8.0 | 0.00 | 0.00 | 0.00 | 55 | 1011.2 |
| 20260504222112 | 23 | 235 | 3.2 | 8.0 | 0.00 | 0.00 | 0.00 | 54 | 1011.2 |
| 20260504222012 | 23 | 271 | 1.6 | 8.0 | 0.00 | 0.00 | 0.00 | 54 | 1011.2 |
| 20260504221912 | 23 | 318 | 3.2 | 8.0 | 0.00 | 0.00 | 0.00 | 54 | 1011.2 |
| 20260504221825 | 23 | 203 | 1.6 | 8.0 | 0.00 | 0.00 | 0.00 | 55 | 1011.2 |
| 20260504221813 | 23 | 195 | 1.6 | 8.0 | 0.00 | 0.00 | 0.00 | 54 | 1011.2 |
| 20260504221612 | 23 | 0 | 1.6 | 8.0 | 0.00 | 0.00 | 0.00 | 54 | 1011.2 |
| 20260504221558 | 23 | 39 | 1.6 | 8.0 | 0.00 | 0.00 | 0.00 | 55 | 1011.2 |
| 20260504221412 | 23 | 243 | 1.6 | 4.8 | 0.00 | 0.00 | 0.00 | 56 | 1011.2 |
| 20260504221313 | 23 | 184 | 1.6 | 6.4 | 0.00 | 0.00 | 0.00 | 56 | 1011.2 |
| 20260504221212 | 23 | 282 | 1.6 | 6.4 | 0.00 | 0.00 | 0.00 | 55 | 1011.2 |
| 20260504221112 | 23 | 226 | 1.6 | 6.4 | 0.00 | 0.00 | 0.00 | 55 | 1011.2 |
| 20260504221013 | 23 | 269 | 1.6 | 6.4 | 0.00 | 0.00 | 0.00 | 55 | 1011.3 |
| 20260504220913 | 23 | 256 | 1.6 | 6.4 | 0.00 | 0.00 | 0.00 | 55 | 1011.3 |
| 20260504220813 | 23 | 184 | 1.6 | 6.4 | 0.00 | 0.00 | 0.00 | 55 | 1011.3 |
| 20260504220712 | 23 | 259 | 1.6 | 6.4 | 0.00 | 0.00 | 0.00 | 55 | 1011.4 |
| 20260504220612 | 23 | 164 | 1.6 | 6.4 | 0.00 | 0.00 | 0.00 | 55 | 1011.3 |
| 20260504220512 | 23 | 203 | 3.2 | 6.4 | 0.00 | 0.00 | 0.00 | 55 | 1011.3 |
| 20260504220412 | 23 | 0 | 1.6 | 6.4 | 0.00 | 0.00 | 0.00 | 55 | 1011.4 |
| 20260504220313 | 23 | 41 | 1.6 | 6.4 | 0.00 | 0.00 | 0.00 | 55 | 1011.4 |
| 20260504220213 | 23 | 274 | 1.6 | 6.4 | 0.00 | 0.00 | 0.00 | 55 | 1011.4 |
| 20260504220112 | 23 | 281 | 1.6 | 6.4 | 0.00 | 0.00 | 0.00 | 54 | 1011.4 |
| 20260504220013 | 23 | 233 | 1.6 | 6.4 | 0.00 | 0.00 | 0.00 | 54 | 1011.4 |
| 20260504215913 | 23 | 52 | 1.6 | 6.4 | 0.00 | 0.00 | 0.00 | 55 | 1011.5 |
| 20260504215813 | 22 | 11 | 1.6 | 6.4 | 0.00 | 0.00 | 0.00 | 56 | 1011.5 |
| 20260504215713 | 22 | 189 | 1.6 | 6.4 | 0.00 | 0.00 | 0.00 | 55 | 1011.5 |
| 20260504215612 | 22 | 352 | 1.6 | 6.4 | 0.00 | 0.00 | 0.00 | 55 | 1011.5 |
| 20260504215513 | 22 | 344 | 1.6 | 6.4 | 0.00 | 0.00 | 0.00 | 55 | 1011.5 |
| 20260504215413 | 22 | 141 | 1.6 | 6.4 | 0.00 | 0.00 | 0.00 | 55 | 1011.5 |
| 20260504215313 | 22 | 316 | 1.6 | 6.4 | 0.00 | 0.00 | 0.00 | 55 | 1011.5 |
| 20260504215209 | 22 | 47 | 1.6 | 8.0 | 0.00 | 0.00 | 0.00 | 55 | 1011.6 |
| 20260504215110 | 22 | 52 | 1.6 | 8.0 | 0.00 | 0.00 | 0.00 | 56 | 1011.6 |
| 20260504215007 | 22 | 314 | 1.6 | 8.0 | 0.00 | 0.00 | 0.00 | 55 | 1011.6 |
| 20260504214904 | 22 | 268 | 1.6 | 8.0 | 0.00 | 0.00 | 0.00 | 55 | 1011.6 |
| 20260504214804 | 22 | 268 | 1.6 | 8.0 | 0.00 | 0.00 | 0.00 | 56 | 1011.6 |
| 20260504214701 | 22 | 261 | 1.6 | 8.0 | 0.00 | 0.00 | 0.00 | 56 | 1011.6 |
| 20260504214558 | 22 | 298 | 1.6 | 8.0 | 0.00 | 0.00 | 0.00 | 56 | 1011.6 |
| 20260504214457 | 22 | 274 | 1.6 | 8.0 | 0.00 | 0.00 | 0.00 | 56 | 1011.6 |
| 20260504214357 | 22 | 19 | 1.6 | 8.0 | 0.00 | 0.00 | 0.00 | 56 | 1011.6 |
| 20260504214258 | 22 | 196 | 1.6 | 8.0 | 0.00 | 0.00 | 0.00 | 57 | 1011.6 |
| 20260504214158 | 22 | 197 | 3.2 | 8.0 | 0.00 | 0.00 | 0.00 | 57 | 1011.6 |
| 20260504214102 | 22 | 258 | 1.6 | 8.0 | 0.00 | 0.00 | 0.00 | 57 | 1011.6 |
| 20260504213958 | 22 | 287 | 1.6 | 8.0 | 0.00 | 0.00 | 0.00 | 57 | 1011.7 |
| 20260504213858 | 22 | 0 | 3.2 | 8.0 | 0.00 | 0.00 | 0.00 | 57 | 1011.6 |
| 20260504213757 | 22 | 355 | 3.2 | 8.0 | 0.00 | 0.00 | 0.00 | 58 | 1011.7 |
| 20260504213656 | 22 | 0 | 3.2 | 8.0 | 0.00 | 0.00 | 0.00 | 58 | 1011.7 |
| 20260504213557 | 22 | 346 | 3.2 | 8.0 | 0.00 | 0.00 | 0.00 | 57 | 1011.7 |
| 20260504213457 | 22 | 176 | 3.2 | 8.0 | 0.00 | 0.00 | 0.00 | 58 | 1011.7 |
| 20260504213356 | 22 | 163 | 3.2 | 8.0 | 0.00 | 0.00 | 0.00 | 58 | 1011.8 |
| 20260504213257 | 22 | 192 | 3.2 | 8.0 | 0.00 | 0.00 | 0.00 | 58 | 1011.8 |
| 20260504213157 | 22 | 182 | 3.2 | 8.0 | 0.00 | 0.00 | 0.00 | 59 | 1011.7 |
| 20260504213056 | 22 | 42 | 3.2 | 8.0 | 0.00 | 0.00 | 0.00 | 59 | 1011.7 |
| 20260504212956 | 22 | 337 | 3.2 | 8.0 | 0.00 | 0.00 | 0.00 | 59 | 1011.7 |
| 20260504212857 | 22 | 320 | 3.2 | 8.0 | 0.00 | 0.00 | 0.00 | 59 | 1011.8 |
| 20260504212756 | 22 | 237 | 3.2 | 8.0 | 0.00 | 0.00 | 0.00 | 58 | 1011.8 |
| 20260504212657 | 22 | 218 | 3.2 | 8.0 | 0.00 | 0.00 | 0.00 | 58 | 1011.8 |
| 20260504212557 | 22 | 186 | 1.6 | 11.3 | 0.00 | 0.00 | 0.00 | 58 | 1011.9 |
| 20260504212457 | 22 | 48 | 1.6 | 11.3 | 0.00 | 0.00 | 0.00 | 58 | 1011.9 |
| 20260504212357 | 22 | 0 | 1.6 | 11.3 | 0.00 | 0.00 | 0.00 | 58 | 1011.9 |
| 20260504212257 | 22 | 42 | 1.6 | 11.3 | 0.00 | 0.00 | 0.00 | 57 | 1011.9 |
| 20260504212157 | 22 | 299 | 1.6 | 11.3 | 0.00 | 0.00 | 0.00 | 57 | 1011.9 |
| 20260504212056 | 22 | 210 | 1.6 | 11.3 | 0.00 | 0.00 | 0.00 | 58 | 1011.9 |
| 20260504211957 | 21 | 270 | 1.6 | 11.3 | 0.00 | 0.00 | 0.00 | 59 | 1011.9 |
| 20260504211857 | 21 | 179 | 1.6 | 11.3 | 0.00 | 0.00 | 0.00 | 59 | 1011.9 |
| 20260504211756 | 21 | 129 | 1.6 | 11.3 | 0.00 | 0.00 | 0.00 | 58 | 1011.9 |
| 20260504211657 | 21 | 34 | 1.6 | 11.3 | 0.00 | 0.00 | 0.00 | 59 | 1012.0 |
| 20260504211556 | 21 | 55 | 1.6 | 11.3 | 0.00 | 0.00 | 0.00 | 59 | 1012.0 |
| 20260504211456 | 21 | 301 | 1.6 | 8.0 | 0.00 | 0.00 | 0.00 | 59 | 1012.0 |
| 20260504211356 | 21 | 298 | 1.6 | 8.0 | 0.00 | 0.00 | 0.00 | 59 | 1012.0 |
| 20260504211256 | 21 | 253 | 1.6 | 8.0 | 0.00 | 0.00 | 0.00 | 59 | 1012.0 |
| 20260504211157 | 21 | 233 | 1.6 | 8.0 | 0.00 | 0.00 | 0.00 | 59 | 1012.0 |
| 20260504211105 | 21 | 123 | 1.6 | 8.0 | 0.00 | 0.00 | 0.00 | 59 | 1012.0 |
| 20260504211057 | 21 | 182 | 3.2 | 8.0 | 0.00 | 0.00 | 0.00 | 60 | 1012.1 |
| 20260504210857 | 21 | 345 | 3.2 | 8.0 | 0.00 | 0.00 | 0.00 | 61 | 1012.1 |
| 20260504210756 | 21 | 70 | 3.2 | 8.0 | 0.00 | 0.00 | 0.00 | 60 | 1012.1 |
| 20260504210702 | 21 | 107 | 3.2 | 8.0 | 0.00 | 0.00 | 0.00 | 60 | 1012.1 |
| 20260504210557 | 21 | 285 | 3.2 | 8.0 | 0.00 | 0.00 | 0.00 | 60 | 1012.1 |
| 20260504210457 | 21 | 109 | 3.2 | 8.0 | 0.00 | 0.00 | 0.00 | 61 | 1012.1 |
| 20260504210357 | 21 | 100 | 3.2 | 8.0 | 0.00 | 0.00 | 0.00 | 61 | 1012.1 |
| 20260504210256 | 21 | 214 | 3.2 | 8.0 | 0.00 | 0.00 | 0.00 | 60 | 1012.1 |
| 20260504210156 | 21 | 0 | 3.2 | 8.0 | 0.00 | 0.00 | 0.00 | 60 | 1012.1 |
| 20260504210057 | 21 | 166 | 3.2 | 8.0 | 0.00 | 0.00 | 0.00 | 60 | 1012.2 |
| 20260504205957 | 21 | 177 | 1.6 | 9.7 | 0.00 | 0.00 | 0.00 | 61 | 1012.2 |
| 20260504205856 | 21 | 197 | 3.2 | 9.7 | 0.00 | 0.00 | 0.00 | 60 | 1012.2 |
| 20260504205756 | 21 | 190 | 3.2 | 9.7 | 0.00 | 0.00 | 0.00 | 59 | 1012.2 |
| 20260504205657 | 21 | 165 | 3.2 | 9.7 | 0.00 | 0.00 | 0.00 | 61 | 1012.3 |
| 20260504205556 | 21 | 16 | 3.2 | 9.7 | 0.00 | 0.00 | 0.00 | 61 | 1012.3 |
| 20260504205453 | 21 | 45 | 1.6 | 9.7 | 0.00 | 0.00 | 0.00 | 61 | 1012.3 |
| 20260504205351 | 20 | 344 | 1.6 | 9.7 | 0.00 | 0.00 | 0.00 | 62 | 1012.3 |
| 20260504205250 | 20 | 120 | 3.2 | 9.7 | 0.00 | 0.00 | 0.00 | 62 | 1012.3 |
| 20260504205146 | 20 | 79 | 3.2 | 9.7 | 0.00 | 0.00 | 0.00 | 63 | 1012.3 |
| 20260504205047 | 20 | 123 | 3.2 | 9.7 | 0.00 | 0.00 | 0.00 | 62 | 1012.3 |
| 20260504204953 | 20 | 169 | 3.2 | 9.7 | 0.00 | 0.00 | 0.00 | 62 | 1012.3 |
| 20260504204847 | 20 | 244 | 3.2 | 8.0 | 0.00 | 0.00 | 0.00 | 61 | 1012.3 |
| 20260504204747 | 20 | 127 | 3.2 | 8.0 | 0.00 | 0.00 | 0.00 | 62 | 1012.4 |
| 20260504204647 | 20 | 289 | 3.2 | 8.0 | 0.00 | 0.00 | 0.00 | 62 | 1012.4 |
| 20260504204547 | 20 | 0 | 3.2 | 8.0 | 0.00 | 0.00 | 0.00 | 62 | 1012.4 |
| 20260504204455 | 20 | 295 | 3.2 | 8.0 | 0.00 | 0.00 | 0.00 | 62 | 1012.4 |
| 20260504204347 | 20 | 219 | 3.2 | 8.0 | 0.00 | 0.00 | 0.00 | 62 | 1012.4 |
| 20260504204247 | 20 | 175 | 3.2 | 8.0 | 0.00 | 0.00 | 0.00 | 62 | 1012.5 |
| 20260504204147 | 20 | 296 | 3.2 | 8.0 | 0.00 | 0.00 | 0.00 | 63 | 1012.5 |
| 20260504204046 | 20 | 203 | 3.2 | 8.0 | 0.00 | 0.00 | 0.00 | 62 | 1012.5 |
| 20260504203954 | 21 | 195 | 3.2 | 8.0 | 0.00 | 0.00 | 0.00 | 62 | 1012.5 |
| 20260504203846 | 21 | 179 | 1.6 | 6.4 | 0.00 | 0.00 | 0.00 | 62 | 1012.5 |
| 20260504203748 | 21 | 220 | 1.6 | 6.4 | 0.00 | 0.00 | 0.00 | 61 | 1012.5 |
| 20260504203648 | 20 | 187 | 1.6 | 6.4 | 0.00 | 0.00 | 0.00 | 61 | 1012.5 |
| 20260504203547 | 20 | 178 | 1.6 | 6.4 | 0.00 | 0.00 | 0.00 | 61 | 1012.5 |
| 20260504203453 | 20 | 65 | 1.6 | 6.4 | 0.00 | 0.00 | 0.00 | 61 | 1012.6 |
| 20260504203346 | 20 | 154 | 1.6 | 6.4 | 0.00 | 0.00 | 0.00 | 61 | 1012.6 |
| 20260504203247 | 20 | 79 | 1.6 | 6.4 | 0.00 | 0.00 | 0.00 | 61 | 1012.6 |
| 20260504203147 | 20 | 142 | 1.6 | 9.7 | 0.00 | 0.00 | 0.00 | 62 | 1012.6 |
| 20260504203047 | 20 | 129 | 3.2 | 9.7 | 0.00 | 0.00 | 0.00 | 63 | 1012.6 |
| 20260504202953 | 20 | 289 | 3.2 | 9.7 | 0.00 | 0.00 | 0.00 | 63 | 1012.6 |
| 20260504202847 | 20 | 192 | 3.2 | 9.7 | 0.00 | 0.00 | 0.00 | 63 | 1012.6 |
| 20260504202747 | 20 | 165 | 3.2 | 9.7 | 0.00 | 0.00 | 0.00 | 64 | 1012.6 |
| 20260504202647 | 20 | 290 | 3.2 | 9.7 | 0.00 | 0.00 | 0.00 | 64 | 1012.6 |
| 20260504202454 | 20 | 357 | 3.2 | 9.7 | 0.00 | 0.00 | 0.00 | 63 | 1012.6 |
| 20260504202347 | 20 | 46 | 1.6 | 9.7 | 0.00 | 0.00 | 0.00 | 63 | 1012.7 |
| 20260504202247 | 20 | 189 | 1.6 | 9.7 | 0.00 | 0.00 | 0.00 | 63 | 1012.7 |
| 20260504202147 | 20 | 182 | 1.6 | 9.7 | 0.00 | 0.00 | 0.00 | 64 | 1012.7 |
| 20260504202047 | 20 | 70 | 1.6 | 6.4 | 0.00 | 0.00 | 0.00 | 63 | 1012.7 |
| 20260504201954 | 19 | 157 | 1.6 | 6.4 | 0.00 | 0.00 | 0.00 | 64 | 1012.7 |
| 20260504201847 | 19 | 237 | 3.2 | 6.4 | 0.00 | 0.00 | 0.00 | 65 | 1012.7 |
| 20260504201747 | 19 | 314 | 3.2 | 6.4 | 0.00 | 0.00 | 0.00 | 66 | 1012.7 |
| 20260504201647 | 19 | 187 | 3.2 | 6.4 | 0.00 | 0.00 | 0.00 | 66 | 1012.7 |
| 20260504201548 | 19 | 184 | 3.2 | 6.4 | 0.00 | 0.00 | 0.00 | 66 | 1012.7 |
| 20260504201454 | 19 | 139 | 3.2 | 6.4 | 0.00 | 0.00 | 0.00 | 66 | 1012.7 |
| 20260504201347 | 19 | 225 | 3.2 | 8.0 | 0.00 | 0.00 | 0.00 | 66 | 1012.7 |
| 20260504201247 | 19 | 158 | 3.2 | 8.0 | 0.00 | 0.00 | 0.00 | 65 | 1012.7 |
| 20260504201148 | 19 | 213 | 3.2 | 8.0 | 0.00 | 0.00 | 0.00 | 66 | 1012.8 |
| 20260504201047 | 19 | 223 | 3.2 | 8.0 | 0.00 | 0.00 | 0.00 | 65 | 1012.8 |
| 20260504200953 | 19 | 179 | 3.2 | 8.0 | 0.00 | 0.00 | 0.00 | 66 | 1012.8 |
| 20260504200847 | 19 | 184 | 3.2 | 8.0 | 0.00 | 0.00 | 0.00 | 66 | 1012.9 |
| 20260504200747 | 19 | 187 | 3.2 | 8.0 | 0.00 | 0.00 | 0.00 | 65 | 1012.8 |
| 20260504200648 | 19 | 217 | 3.2 | 8.0 | 0.00 | 0.00 | 0.00 | 66 | 1012.9 |
| 20260504200548 | 19 | 217 | 3.2 | 8.0 | 0.00 | 0.00 | 0.00 | 66 | 1012.9 |
| 20260504200454 | 19 | 46 | 1.6 | 8.0 | 0.00 | 0.00 | 0.00 | 65 | 1012.9 |
| 20260504200348 | 19 | 35 | 1.6 | 8.0 | 0.00 | 0.00 | 0.00 | 66 | 1012.9 |
| 20260504200247 | 19 | 358 | 1.6 | 8.0 | 0.00 | 0.00 | 0.00 | 66 | 1012.9 |
| 20260504200147 | 19 | 10 | 1.6 | 8.0 | 0.00 | 0.00 | 0.00 | 67 | 1012.9 |
| 20260504200047 | 19 | 329 | 1.6 | 8.0 | 0.00 | 0.00 | 0.00 | 65 | 1012.9 |
| 20260504195954 | 19 | 64 | 1.6 | 8.0 | 0.00 | 0.00 | 0.00 | 64 | 1012.9 |
| 20260504195848 | 19 | 234 | 1.6 | 6.4 | 0.00 | 0.00 | 0.00 | 65 | 1012.9 |
| 20260504195747 | 19 | 0 | 1.6 | 6.4 | 0.00 | 0.00 | 0.00 | 65 | 1012.9 |
| 20260504195648 | 19 | 206 | 1.6 | 6.4 | 0.00 | 0.00 | 0.00 | 65 | 1012.9 |
| 20260504195600 | 19 | 131 | 1.6 | 6.4 | 0.00 | 0.00 | 0.00 | 66 | 1013.0 |
| 20260504195552 | 18 | 90 | 1.6 | 6.4 | 0.00 | 0.00 | 0.00 | 66 | 1013.0 |
| 20260504195348 | 18 | 215 | 1.6 | 6.4 | 0.00 | 0.00 | 0.00 | 66 | 1013.0 |
| 20260504195247 | 18 | 50 | 1.6 | 6.4 | 0.00 | 0.00 | 0.00 | 67 | 1012.9 |
| 20260504195145 | 18 | 179 | 1.6 | 6.4 | 0.00 | 0.00 | 0.00 | 67 | 1013.0 |
| 20260504195045 | 18 | 75 | 3.2 | 8.0 | 0.00 | 0.00 | 0.00 | 67 | 1013.0 |
| 20260504194950 | 18 | 271 | 3.2 | 8.0 | 0.00 | 0.00 | 0.00 | 66 | 1013.0 |
| 20260504194844 | 18 | 171 | 3.2 | 8.0 | 0.00 | 0.00 | 0.00 | 66 | 1013.0 |
| 20260504194744 | 18 | 164 | 3.2 | 8.0 | 0.00 | 0.00 | 0.00 | 67 | 1013.0 |
| 20260504194642 | 18 | 56 | 3.2 | 8.0 | 0.00 | 0.00 | 0.00 | 67 | 1013.0 |
| 20260504194541 | 18 | 191 | 3.2 | 8.0 | 0.00 | 0.00 | 0.00 | 68 | 1013.0 |
| 20260504194342 | 18 | 256 | 1.6 | 8.0 | 0.00 | 0.00 | 0.00 | 68 | 1013.0 |
| 20260504194242 | 18 | 328 | 3.2 | 8.0 | 0.00 | 0.00 | 0.00 | 67 | 1013.0 |
| 20260504194142 | 18 | 161 | 3.2 | 8.0 | 0.00 | 0.00 | 0.00 | 67 | 1013.0 |
| 20260504194042 | 18 | 198 | 1.6 | 8.0 | 0.00 | 0.00 | 0.00 | 67 | 1013.0 |
| 20260504193841 | 18 | 87 | 1.6 | 6.4 | 0.00 | 0.00 | 0.00 | 68 | 1013.0 |
| 20260504193741 | 18 | 0 | 1.6 | 6.4 | 0.00 | 0.00 | 0.00 | 67 | 1013.0 |
| 20260504193639 | 18 | 158 | 1.6 | 6.4 | 0.00 | 0.00 | 0.00 | 68 | 1013.0 |
| 20260504193539 | 18 | 268 | 1.6 | 6.4 | 0.00 | 0.00 | 0.00 | 68 | 1013.0 |
| 20260504193437 | 18 | 184 | 1.6 | 6.4 | 0.00 | 0.00 | 0.00 | 67 | 1013.0 |
| 20260504193337 | 18 | 276 | 1.6 | 8.0 | 0.00 | 0.00 | 0.00 | 68 | 1013.0 |
| 20260504193236 | 18 | 265 | 1.6 | 8.0 | 0.00 | 0.00 | 0.00 | 68 | 1013.1 |
| 20260504193136 | 18 | 274 | 1.6 | 8.0 | 0.00 | 0.00 | 0.00 | 70 | 1013.1 |
| 20260504193035 | 18 | 0 | 1.6 | 8.0 | 0.00 | 0.00 | 0.00 | 69 | 1013.1 |
| 20260504192935 | 17 | 184 | 1.6 | 8.0 | 0.00 | 0.00 | 0.00 | 70 | 1013.0 |
| 20260504192835 | 17 | 6 | 3.2 | 9.7 | 0.00 | 0.00 | 0.00 | 70 | 1013.0 |
| 20260504192737 | 17 | 54 | 3.2 | 9.7 | 0.00 | 0.00 | 0.00 | 70 | 1013.0 |
| 20260504192634 | 17 | 0 | 3.2 | 9.7 | 0.00 | 0.00 | 0.00 | 70 | 1013.0 |
| 20260504192535 | 17 | 249 | 3.2 | 9.7 | 0.00 | 0.00 | 0.00 | 71 | 1013.1 |
| 20260504192435 | 17 | 248 | 3.2 | 9.7 | 0.00 | 0.00 | 0.00 | 71 | 1013.0 |
| 20260504192335 | 17 | 205 | 3.2 | 9.7 | 0.00 | 0.00 | 0.00 | 71 | 1013.0 |
| 20260504192235 | 17 | 213 | 3.2 | 9.7 | 0.00 | 0.00 | 0.00 | 71 | 1013.1 |
| 20260504192136 | 17 | 179 | 3.2 | 9.7 | 0.00 | 0.00 | 0.00 | 72 | 1013.1 |
| 20260504192035 | 17 | 191 | 3.2 | 9.7 | 0.00 | 0.00 | 0.00 | 71 | 1013.1 |
| 20260504191935 | 17 | 235 | 3.2 | 9.7 | 0.00 | 0.00 | 0.00 | 71 | 1013.1 |
| 20260504191835 | 17 | 25 | 1.6 | 9.7 | 0.00 | 0.00 | 0.00 | 71 | 1013.1 |
| 20260504191737 | 17 | 241 | 1.6 | 9.7 | 0.00 | 0.00 | 0.00 | 72 | 1013.2 |
| 20260504191635 | 17 | 187 | 3.2 | 9.7 | 0.00 | 0.00 | 0.00 | 73 | 1013.2 |
| 20260504191535 | 16 | 183 | 3.2 | 9.7 | 0.00 | 0.00 | 0.00 | 73 | 1013.2 |
| 20260504191435 | 16 | 318 | 3.2 | 6.4 | 0.00 | 0.00 | 0.00 | 73 | 1013.2 |
| 20260504191335 | 16 | 181 | 3.2 | 6.4 | 0.00 | 0.00 | 0.00 | 74 | 1013.2 |
| 20260504191235 | 16 | 0 | 3.2 | 6.4 | 0.00 | 0.00 | 0.00 | 74 | 1013.2 |
| 20260504191136 | 16 | 273 | 3.2 | 6.4 | 0.00 | 0.00 | 0.00 | 74 | 1013.2 |
| 20260504191035 | 16 | 4 | 1.6 | 6.4 | 0.00 | 0.00 | 0.00 | 74 | 1013.2 |
| 20260504190935 | 16 | 57 | 1.6 | 6.4 | 0.00 | 0.00 | 0.00 | 74 | 1013.2 |
| 20260504190835 | 16 | 197 | 1.6 | 6.4 | 0.00 | 0.00 | 0.00 | 74 | 1013.2 |
| 20260504190738 | 16 | 204 | 1.6 | 6.4 | 0.00 | 0.00 | 0.00 | 75 | 1013.2 |
| 20260504190635 | 16 | 71 | 1.6 | 6.4 | 0.00 | 0.00 | 0.00 | 74 | 1013.2 |
| 20260504190536 | 16 | 248 | 1.6 | 6.4 | 0.00 | 0.00 | 0.00 | 75 | 1013.2 |
| 20260504190435 | 16 | 269 | 1.6 | 8.0 | 0.00 | 0.00 | 0.00 | 75 | 1013.2 |
| 20260504190336 | 16 | 287 | 3.2 | 8.0 | 0.00 | 0.00 | 0.00 | 74 | 1013.2 |
| 20260504190235 | 16 | 111 | 3.2 | 8.0 | 0.00 | 0.00 | 0.00 | 74 | 1013.2 |
| 20260504190136 | 16 | 251 | 3.2 | 8.0 | 0.00 | 0.00 | 0.00 | 74 | 1013.2 |
| 20260504190036 | 16 | 181 | 3.2 | 8.0 | 0.00 | 0.00 | 0.00 | 74 | 1013.2 |
| 20260504185935 | 16 | 211 | 3.2 | 8.0 | 0.00 | 0.00 | 0.00 | 74 | 1013.3 |
| 20260504185835 | 16 | 161 | 3.2 | 8.0 | 0.00 | 0.00 | 0.00 | 75 | 1013.3 |
| 20260504185735 | 16 | 7 | 3.2 | 8.0 | 0.00 | 0.00 | 0.00 | 75 | 1013.3 |
| 20260504185633 | 16 | 220 | 3.2 | 8.0 | 0.00 | 0.00 | 0.00 | 74 | 1013.3 |
| 20260504185532 | 16 | 23 | 3.2 | 8.0 | 0.00 | 0.00 | 0.00 | 75 | 1013.3 |
| 20260504185432 | 16 | 173 | 3.2 | 8.0 | 0.00 | 0.00 | 0.00 | 74 | 1013.3 |
| 20260504185330 | 16 | 160 | 3.2 | 8.0 | 0.00 | 0.00 | 0.00 | 75 | 1013.3 |
| 20260504185230 | 16 | 284 | 3.2 | 8.0 | 0.00 | 0.00 | 0.00 | 75 | 1013.3 |
| 20260504185130 | 16 | 165 | 3.2 | 8.0 | 0.00 | 0.00 | 0.00 | 75 | 1013.3 |
| 20260504185031 | 16 | 205 | 3.2 | 8.0 | 0.00 | 0.00 | 0.00 | 75 | 1013.3 |
| 20260504184931 | 16 | 181 | 3.2 | 8.0 | 0.00 | 0.00 | 0.00 | 75 | 1013.4 |
| 20260504184828 | 16 | 180 | 3.2 | 6.4 | 0.00 | 0.00 | 0.00 | 75 | 1013.4 |
| 20260504184727 | 16 | 253 | 3.2 | 6.4 | 0.00 | 0.00 | 0.00 | 74 | 1013.4 |
| 20260504184629 | 16 | 189 | 3.2 | 6.4 | 0.00 | 0.00 | 0.00 | 75 | 1013.4 |
| 20260504184525 | 16 | 239 | 3.2 | 6.4 | 0.00 | 0.00 | 0.00 | 75 | 1013.4 |
| 20260504184425 | 16 | 104 | 3.2 | 6.4 | 0.00 | 0.00 | 0.00 | 75 | 1013.4 |
| 20260504184325 | 16 | 93 | 3.2 | 6.4 | 0.00 | 0.00 | 0.00 | 75 | 1013.4 |
| 20260504184225 | 16 | 68 | 3.2 | 6.4 | 0.00 | 0.00 | 0.00 | 75 | 1013.4 |
| 20260504184126 | 16 | 210 | 3.2 | 6.4 | 0.00 | 0.00 | 0.00 | 75 | 1013.4 |
| 20260504184026 | 16 | 244 | 3.2 | 6.4 | 0.00 | 0.00 | 0.00 | 75 | 1013.4 |
| 20260504183925 | 16 | 144 | 3.2 | 6.4 | 0.00 | 0.00 | 0.00 | 75 | 1013.4 |
| 20260504183826 | 16 | 226 | 1.6 | 6.4 | 0.00 | 0.00 | 0.00 | 75 | 1013.4 |
| 20260504183726 | 16 | 200 | 3.2 | 6.4 | 0.00 | 0.00 | 0.00 | 76 | 1013.4 |
| 20260504183627 | 16 | 17 | 1.6 | 6.4 | 0.00 | 0.00 | 0.00 | 76 | 1013.3 |
| 20260504183525 | 16 | 53 | 1.6 | 6.4 | 0.00 | 0.00 | 0.00 | 76 | 1013.3 |
| 20260504183426 | 16 | 185 | 1.6 | 6.4 | 0.00 | 0.00 | 0.00 | 76 | 1013.3 |
| 20260504183325 | 16 | 79 | 3.2 | 6.4 | 0.00 | 0.00 | 0.00 | 76 | 1013.3 |
| 20260504183225 | 16 | 180 | 1.6 | 6.4 | 0.00 | 0.00 | 0.00 | 76 | 1013.3 |
| 20260504183126 | 16 | 184 | 1.6 | 4.8 | 0.00 | 0.00 | 0.00 | 77 | 1013.3 |
| 20260504183024 | 16 | 177 | 1.6 | 4.8 | 0.00 | 0.00 | 0.00 | 77 | 1013.3 |
| 20260504182925 | 16 | 77 | 1.6 | 4.8 | 0.00 | 0.00 | 0.00 | 77 | 1013.3 |
| 20260504182826 | 15 | 164 | 1.6 | 6.4 | 0.00 | 0.00 | 0.00 | 77 | 1013.3 |
| 20260504182725 | 15 | 75 | 3.2 | 6.4 | 0.00 | 0.00 | 0.00 | 77 | 1013.3 |
| 20260504182627 | 15 | 33 | 3.2 | 6.4 | 0.00 | 0.00 | 0.00 | 77 | 1013.3 |
| 20260504182525 | 15 | 127 | 3.2 | 6.4 | 0.00 | 0.00 | 0.00 | 78 | 1013.3 |
| 20260504182425 | 15 | 118 | 3.2 | 6.4 | 0.00 | 0.00 | 0.00 | 77 | 1013.3 |
| 20260504182325 | 15 | 143 | 3.2 | 6.4 | 0.00 | 0.00 | 0.00 | 78 | 1013.3 |
| 20260504182225 | 15 | 272 | 3.2 | 6.4 | 0.00 | 0.00 | 0.00 | 78 | 1013.3 |
| 20260504182127 | 15 | 14 | 3.2 | 6.4 | 0.00 | 0.00 | 0.00 | 78 | 1013.3 |
| 20260504182025 | 15 | 46 | 3.2 | 6.4 | 0.00 | 0.00 | 0.00 | 78 | 1013.2 |
| 20260504181925 | 15 | 182 | 3.2 | 6.4 | 0.00 | 0.00 | 0.00 | 77 | 1013.3 |
| 20260504181825 | 15 | 114 | 3.2 | 8.0 | 0.00 | 0.00 | 0.00 | 77 | 1013.2 |
| 20260504181726 | 15 | 170 | 3.2 | 8.0 | 0.00 | 0.00 | 0.00 | 77 | 1013.3 |
| 20260504181627 | 15 | 117 | 3.2 | 8.0 | 0.00 | 0.00 | 0.00 | 77 | 1013.3 |
| 20260504181525 | 15 | 259 | 3.2 | 8.0 | 0.00 | 0.00 | 0.00 | 77 | 1013.3 |
| 20260504181426 | 15 | 138 | 3.2 | 8.0 | 0.00 | 0.00 | 0.00 | 78 | 1013.3 |
| 20260504181325 | 15 | 205 | 3.2 | 8.0 | 0.00 | 0.00 | 0.00 | 78 | 1013.3 |
| 20260504181225 | 15 | 172 | 3.2 | 8.0 | 0.00 | 0.00 | 0.00 | 78 | 1013.3 |
| 20260504181126 | 15 | 98 | 3.2 | 8.0 | 0.00 | 0.00 | 0.00 | 78 | 1013.3 |
| 20260504181025 | 15 | 177 | 3.2 | 8.0 | 0.00 | 0.00 | 0.00 | 78 | 1013.3 |
| 20260504180925 | 15 | 211 | 3.2 | 8.0 | 0.00 | 0.00 | 0.00 | 78 | 1013.3 |
| 20260504180825 | 15 | 176 | 1.6 | 4.8 | 0.00 | 0.00 | 0.00 | 79 | 1013.3 |
| 20260504180725 | 15 | 65 | 1.6 | 4.8 | 0.00 | 0.00 | 0.00 | 79 | 1013.3 |
| 20260504180626 | 15 | 160 | 1.6 | 4.8 | 0.00 | 0.00 | 0.00 | 79 | 1013.3 |
| 20260504180522 | 15 | 191 | 1.6 | 4.8 | 0.00 | 0.00 | 0.00 | 79 | 1013.4 |
| 20260504180423 | 15 | 146 | 1.6 | 4.8 | 0.00 | 0.00 | 0.00 | 79 | 1013.3 |
| 20260504180323 | 15 | 143 | 1.6 | 4.8 | 0.00 | 0.00 | 0.00 | 79 | 1013.3 |
| 20260504180222 | 15 | 174 | 1.6 | 4.8 | 0.00 | 0.00 | 0.00 | 79 | 1013.3 |
| 20260504180124 | 15 | 249 | 1.6 | 4.8 | 0.00 | 0.00 | 0.00 | 79 | 1013.3 |
| 20260504180022 | 15 | 246 | 1.6 | 4.8 | 0.00 | 0.00 | 0.00 | 79 | 1013.3 |
| 20260504175922 | 15 | 92 | 1.6 | 4.8 | 0.00 | 0.00 | 0.00 | 80 | 1013.3 |
| 20260504175822 | 15 | 66 | 1.6 | 6.4 | 0.00 | 0.00 | 0.00 | 80 | 1013.4 |
| 20260504175723 | 15 | 178 | 1.6 | 6.4 | 0.00 | 0.00 | 0.00 | 79 | 1013.3 |
| 20260504175622 | 15 | 209 | 1.6 | 6.4 | 0.00 | 0.00 | 0.00 | 80 | 1013.3 |
| 20260504175521 | 15 | 138 | 1.6 | 6.4 | 0.00 | 0.00 | 0.00 | 80 | 1013.3 |
| 20260504175421 | 15 | 224 | 1.6 | 6.4 | 0.00 | 0.00 | 0.00 | 80 | 1013.3 |
| 20260504175318 | 15 | 238 | 1.6 | 6.4 | 0.00 | 0.00 | 0.00 | 80 | 1013.3 |
| 20260504175219 | 15 | 195 | 1.6 | 6.4 | 0.00 | 0.00 | 0.00 | 80 | 1013.3 |
| 20260504175121 | 15 | 94 | 1.6 | 6.4 | 0.00 | 0.00 | 0.00 | 80 | 1013.3 |
| 20260504175018 | 15 | 162 | 1.6 | 6.4 | 0.00 | 0.00 | 0.00 | 81 | 1013.3 |
| 20260504174918 | 15 | 157 | 1.6 | 6.4 | 0.00 | 0.00 | 0.00 | 81 | 1013.3 |
| 20260504174818 | 15 | 73 | 1.6 | 4.8 | 0.00 | 0.00 | 0.00 | 81 | 1013.3 |
| 20260504174718 | 14 | 86 | 1.6 | 4.8 | 0.00 | 0.00 | 0.00 | 81 | 1013.3 |
| 20260504174621 | 14 | 171 | 1.6 | 4.8 | 0.00 | 0.00 | 0.00 | 80 | 1013.3 |
| 20260504174518 | 14 | 177 | 1.6 | 4.8 | 0.00 | 0.00 | 0.00 | 80 | 1013.4 |
| 20260504174418 | 14 | 205 | 1.6 | 4.8 | 0.00 | 0.00 | 0.00 | 81 | 1013.4 |
| 20260504174316 | 14 | 167 | 1.6 | 4.8 | 0.00 | 0.00 | 0.00 | 81 | 1013.4 |
| 20260504174212 | 14 | 196 | 1.6 | 4.8 | 0.00 | 0.00 | 0.00 | 81 | 1013.4 |
| 20260504174112 | 14 | 78 | 1.6 | 4.8 | 0.00 | 0.00 | 0.00 | 81 | 1013.3 |
| 20260504174012 | 14 | 151 | 1.6 | 4.8 | 0.00 | 0.00 | 0.00 | 81 | 1013.3 |
| 20260504173913 | 14 | 79 | 1.6 | 4.8 | 0.00 | 0.00 | 0.00 | 81 | 1013.3 |
| 20260504173813 | 14 | 273 | 1.6 | 4.8 | 0.00 | 0.00 | 0.00 | 81 | 1013.3 |
| 20260504173713 | 14 | 124 | 1.6 | 4.8 | 0.00 | 0.00 | 0.00 | 82 | 1013.3 |
| 20260504173609 | 14 | 184 | 1.6 | 4.8 | 0.00 | 0.00 | 0.00 | 82 | 1013.3 |
| 20260504173509 | 14 | 78 | 1.6 | 9.7 | 0.00 | 0.00 | 0.00 | 82 | 1013.3 |
| 20260504173409 | 14 | 0 | 1.6 | 9.7 | 0.00 | 0.00 | 0.00 | 82 | 1013.3 |
| 20260504173307 | 14 | 185 | 3.2 | 9.7 | 0.00 | 0.00 | 0.00 | 82 | 1013.2 |
| 20260504173206 | 14 | 106 | 3.2 | 9.7 | 0.00 | 0.00 | 0.00 | 83 | 1013.3 |
| 20260504173107 | 14 | 181 | 1.6 | 9.7 | 0.00 | 0.00 | 0.00 | 82 | 1013.2 |
| 20260504173007 | 14 | 78 | 1.6 | 9.7 | 0.00 | 0.00 | 0.00 | 82 | 1013.3 |
| 20260504172907 | 14 | 91 | 1.6 | 9.7 | 0.00 | 0.00 | 0.00 | 83 | 1013.3 |
| 20260504172807 | 14 | 79 | 3.2 | 9.7 | 0.00 | 0.00 | 0.00 | 83 | 1013.3 |
| 20260504172707 | 14 | 96 | 3.2 | 9.7 | 0.00 | 0.00 | 0.00 | 82 | 1013.3 |
| 20260504172606 | 14 | 89 | 3.2 | 9.7 | 0.00 | 0.00 | 0.00 | 82 | 1013.3 |
| 20260504172507 | 14 | 180 | 3.2 | 9.7 | 0.00 | 0.00 | 0.00 | 83 | 1013.3 |
| 20260504172406 | 14 | 150 | 3.2 | 9.7 | 0.00 | 0.00 | 0.00 | 83 | 1013.3 |
| 20260504172306 | 14 | 186 | 3.2 | 9.7 | 0.00 | 0.00 | 0.00 | 83 | 1013.3 |
| 20260504172206 | 14 | 130 | 3.2 | 9.7 | 0.00 | 0.00 | 0.00 | 83 | 1013.3 |
| 20260504172106 | 14 | 93 | 3.2 | 9.7 | 0.00 | 0.00 | 0.00 | 83 | 1013.3 |
| 20260504172006 | 14 | 93 | 3.2 | 9.7 | 0.00 | 0.00 | 0.00 | 83 | 1013.3 |
| 20260504171907 | 14 | 157 | 3.2 | 9.7 | 0.00 | 0.00 | 0.00 | 83 | 1013.3 |
| 20260504171807 | 14 | 164 | 3.2 | 8.0 | 0.00 | 0.00 | 0.00 | 83 | 1013.2 |
| 20260504171707 | 14 | 181 | 3.2 | 8.0 | 0.00 | 0.00 | 0.00 | 83 | 1013.2 |
| 20260504171606 | 14 | 71 | 1.6 | 6.4 | 0.00 | 0.00 | 0.00 | 83 | 1013.2 |
| 20260504171506 | 14 | 69 | 1.6 | 6.4 | 0.00 | 0.00 | 0.00 | 84 | 1013.2 |
| 20260504171406 | 14 | 76 | 1.6 | 6.4 | 0.00 | 0.00 | 0.00 | 84 | 1013.2 |
| 20260504171306 | 14 | 68 | 1.6 | 6.4 | 0.00 | 0.00 | 0.00 | 83 | 1013.2 |
| 20260504171207 | 14 | 295 | 1.6 | 6.4 | 0.00 | 0.00 | 0.00 | 83 | 1013.2 |
| 20260504171107 | 14 | 93 | 1.6 | 6.4 | 0.00 | 0.00 | 0.00 | 83 | 1013.2 |
| 20260504171006 | 14 | 197 | 1.6 | 6.4 | 0.00 | 0.00 | 0.00 | 83 | 1013.3 |
| 20260504170907 | 14 | 166 | 1.6 | 6.4 | 0.00 | 0.00 | 0.00 | 83 | 1013.3 |
| 20260504170807 | 14 | 127 | 1.6 | 6.4 | 0.00 | 0.00 | 0.00 | 83 | 1013.2 |
| 20260504170707 | 14 | 208 | 1.6 | 6.4 | 0.00 | 0.00 | 0.00 | 83 | 1013.2 |
| 20260504170607 | 14 | 112 | 1.6 | 6.4 | 0.00 | 0.00 | 0.00 | 83 | 1013.2 |
| 20260504170507 | 14 | 184 | 1.6 | 6.4 | 0.00 | 0.00 | 0.00 | 83 | 1013.2 |
| 20260504170407 | 13 | 65 | 1.6 | 6.4 | 0.00 | 0.00 | 0.00 | 83 | 1013.2 |
| 20260504170306 | 13 | 166 | 1.6 | 4.8 | 0.00 | 0.00 | 0.00 | 83 | 1013.2 |
| 20260504170206 | 13 | 121 | 1.6 | 4.8 | 0.00 | 0.00 | 0.00 | 84 | 1013.2 |
| 20260504170107 | 13 | 151 | 1.6 | 4.8 | 0.00 | 0.00 | 0.00 | 83 | 1013.2 |